GEFSSGP_con_maxscp_144.txt.gz
SCP
0 0 0 0 0 0 0 0 0 0 0 0 1 1 1 1 0 1 1 1 1 1 1 1 1 1 2 2 2 2 2 1 1 1 1 1 1 1 1 1 1 1 1 1 1 1 1 1 1
0 0 0 0 0 0 0 0 0 0 0 1 1 1 1 1 1 1 1 2 2 1 1 1 1 1 2 2 2 2 1 1 1 1 1 1 1 1 1 1 1 1 1 1 1 1 1 1 1
0 0 0 0 0 0 0 0 0 1 1 1 1 1 1 1 1 1 2 2 2 2 1 1 1 2 2 2 2 1 1 1 1 1 1 1 1 1 1 1 1 1 1 1 1 1 1 1 1
0 0 0 0 0 0 0 0 1 1 1 1 1 1 1 1 1 2 3 3 2 2 1 1 2 2 2 2 1 1 1 1 1 1 2 2 2 2 1 1 1 1 1 1 1 1 1 1 1
0 0 0 0 0 0 0 0 0 1 1 1 1 1 1 1 1 2 3 3 2 2 2 2 2 2 1 1 1 2 2 2 2 2 2 2 2 2 2 1 1 1 1 1 1 1 1 1 1
0 0 0 0 0 0 0 0 0 1 1 1 1 1 1 2 2 2 3 2 2 2 2 2 2 2 1 2 2 2 2 2 2 1 1 1 2 2 2 2 2 1 1 1 1 1 1 1 1
0 0 0 0 0 0 0 1 1 1 1 1 1 1 2 2 2 3 3 2 3 3 3 2 2 2 2 2 2 2 2 2 2 1 1 1 1 2 2 2 2 1 1 1 1 1 1 1 1
0 0 0 0 0 0 1 1 1 1 1 2 2 2 2 2 3 4 4 3 3 3 3 3 2 2 2 2 2 2 2 2 2 1 1 1 1 1 1 1 2 2 1 1 1 1 1 1 1
0 0 0 0 0 0 1 1 1 1 2 2 2 2 2 4 5 5 5 4 4 4 4 3 2 2 2 2 2 2 2 2 2 2 1 1 1 1 1 1 1 1 1 1 1 1 1 1 1
0 0 0 0 0 1 1 1 1 1 2 2 2 3 4 6 7 6 5 4 4 5 4 3 3 2 2 2 2 2 2 2 2 2 2 2 1 1 1 1 1 1 1 2 2 2 1 1 1
0 0 0 0 0 1 1 1 1 1 2 2 3 4 5 7 8 6 5 4 5 5 5 4 3 3 3 3 2 2 2 2 2 2 2 2 2 1 1 1 1 1 2 2 3 2 2 2 1
0 0 0 0 1 1 1 2 1 1 2 3 3 4 6 7 7 5 5 5 5 5 5 4 3 3 3 3 3 3 2 2 2 2 2 2 2 1 1 1 1 1 2 3 3 3 2 2 1
1 0 0 1 1 1 2 2 2 2 2 3 4 5 5 6 5 4 4 5 5 5 4 4 4 5 5 5 5 3 3 2 2 2 2 2 2 1 1 1 1 1 2 2 3 3 2 2 2
1 1 1 1 1 1 2 2 2 2 3 3 4 5 5 5 4 4 4 4 4 4 4 4 4 4 6 8 7 4 3 2 2 2 2 2 1 1 1 1 1 1 1 2 2 3 3 2 2
0 0 1 1 1 1 2 2 2 2 3 3 4 5 5 4 4 4 3 3 3 4 4 4 3 3 5 7 6 4 3 2 2 2 2 1 1 1 1 1 1 1 1 1 2 2 2 2 2
0 0 0 1 1 1 1 1 2 2 3 4 4 4 4 4 4 3 3 3 2 3 4 4 3 3 4 4 3 3 2 2 1 1 1 1 1 1 1 1 1 1 1 1 1 1 2 1 1
0 0 0 0 1 1 1 1 2 3 3 4 4 4 5 4 4 3 3 2 2 3 4 5 4 3 3 2 2 2 1 1 1 1 1 1 1 1 1 1 1 1 1 1 1 1 1 1 1
0 0 0 0 0 0 1 2 3 3 3 4 5 5 5 4 4 3 3 2 2 2 3 5 4 2 2 1 1 1 1 1 1 1 0 1 1 1 1 1 1 1 2 2 1 1 1 0 0
0 0 0 0 0 0 1 2 3 3 3 4 5 5 5 4 3 3 3 2 2 2 2 3 3 2 1 1 1 1 1 1 1 0 0 0 0 1 1 1 1 1 1 1 1 1 1 0 0
0 0 0 0 0 0 1 2 3 3 3 4 5 6 5 4 3 4 3 3 2 2 2 2 2 2 2 1 1 1 1 1 1 1 0 0 0 0 1 1 1 1 1 1 1 1 1 0 0
0 0 0 0 0 0 1 1 2 2 2 3 4 5 4 4 4 4 4 3 3 3 2 2 2 2 1 1 1 1 1 1 1 1 1 0 0 1 1 1 1 1 1 1 1 1 1 1 1
0 0 0 0 0 0 1 1 1 1 2 3 4 4 3 3 4 5 4 3 3 3 2 2 2 2 1 1 1 1 1 1 1 1 1 1 1 1 1 1 0 0 0 0 0 1 1 1 1
0 0 0 0 0 0 0 1 1 1 1 2 3 3 3 3 5 6 5 4 3 3 3 3 2 2 1 1 1 1 1 0 0 1 1 1 0 0 0 0 0 0 0 0 0 1 1 1 1
0 0 0 0 0 0 0 0 1 1 1 2 3 3 2 3 5 6 6 5 4 4 3 3 2 1 1 0 0 0 0 0 0 1 1 0 0 0 0 0 0 0 0 0 0 0 1 1 0
0 0 0 0 0 0 0 0 1 1 1 1 2 2 2 3 5 7 7 6 5 4 4 3 3 2 1 1 0 0 0 0 0 1 0 0 0 0 0 0 0 0 0 0 0 0 1 0 0
0 0 0 0 0 0 0 0 1 1 1 1 2 2 2 3 5 7 7 7 6 5 4 3 3 2 2 1 1 0 0 0 0 0 0 0 0 0 0 0 0 0 0 0 0 0 0 0 0
0 0 0 0 0 0 0 1 1 1 1 2 2 2 2 3 4 6 7 7 5 4 3 3 3 3 2 1 1 0 0 1 1 0 0 0 0 0 0 0 0 0 0 0 0 0 0 0 0
0 0 0 0 0 0 0 1 1 1 1 2 2 2 2 2 3 4 5 5 4 3 3 2 2 2 2 1 1 1 1 1 1 0 0 0 0 0 0 0 0 0 0 0 0 0 0 0 0
0 0 0 0 0 0 0 1 1 1 1 2 2 1 1 2 2 3 3 3 3 2 2 2 2 1 1 1 1 1 1 1 0 0 0 0 0 0 0 0 0 0 0 0 0 0 0 0 0
0 0 0 0 0 0 0 0 1 1 1 1 1 1 1 2 2 2 2 2 2 2 2 2 1 1 1 0 1 1 1 1 0 0 0 0 0 0 0 0 0 0 0 0 0 0 0 0 0

GEFSSGP_con_maxscp_150.txt.gz
SCP
-0 -0 0 0 0 0 0 0 0 0 0 0 0 0 0 0 0 1 1 1 2 2 2 2 1 1 1 1 2 2 2 2 2 2 2 1 1 1 0 0 0 1 1 1 1 1 1 0 0
-0 0 0 0 0 0 0 0 0 0 0 0 0 0 0 0 1 1 1 1 2 2 2 1 1 1 1 2 2 2 2 2 2 2 1 1 1 1 1 1 1 1 1 1 1 1 1 0 0
0 0 0 0 0 0 0 0 0 0 0 0 1 1 1 1 1 1 1 2 2 2 2 1 1 1 2 2 2 2 2 2 2 2 2 1 1 1 1 1 1 1 1 1 1 1 1 0 0
0 0 0 0 0 0 0 0 1 1 1 1 1 1 1 1 1 1 2 2 2 2 1 1 1 1 2 2 2 2 2 2 2 2 2 2 1 1 1 1 1 1 1 1 1 1 1 1 1
0 0 0 0 0 0 0 1 1 1 1 1 1 1 1 2 2 2 2 2 2 2 1 1 1 1 1 2 2 2 2 1 1 2 2 2 1 1 1 1 1 1 1 1 1 1 1 1 1
0 0 0 0 0 0 1 1 1 1 1 1 1 1 2 2 2 2 2 2 2 2 1 1 1 1 1 2 2 2 2 2 1 1 1 1 1 1 1 1 1 1 1 1 1 1 1 1 1
0 0 0 0 0 0 1 1 1 1 1 1 1 1 2 3 3 3 2 2 3 2 2 1 1 1 1 2 2 2 2 2 1 1 1 1 1 1 1 1 1 1 1 1 1 1 1 1 1
0 0 0 0 0 1 1 1 1 1 1 1 1 1 2 3 4 4 3 3 3 3 2 2 2 1 1 2 2 2 2 2 2 2 1 1 1 1 1 1 1 1 1 1 1 1 1 1 1
0 0 0 0 0 1 1 1 1 1 1 1 2 2 3 4 5 5 5 5 5 4 3 3 2 2 2 2 2 2 2 2 2 2 1 1 1 1 1 1 1 1 1 1 1 1 1 1 1
0 0 0 0 0 1 1 1 1 1 1 1 2 3 3 4 5 5 6 6 6 5 4 4 3 3 2 2 2 2 2 2 2 1 1 1 1 1 1 1 1 1 1 1 1 1 1 1 1
0 0 0 0 0 1 1 1 1 1 1 1 2 3 4 4 5 5 6 6 6 5 5 4 4 4 3 3 3 3 2 2 2 1 1 1 1 1 1 1 1 1 1 1 1 1 1 1 1
0 0 0 0 0 1 1 1 1 1 1 2 2 3 4 4 4 4 5 5 5 4 4 4 4 4 4 4 4 3 3 2 2 2 2 2 1 1 1 1 1 1 1 1 1 1 1 1 1
0 0 0 0 1 1 1 1 1 2 2 2 3 3 4 4 4 4 4 4 4 4 4 4 4 4 4 4 4 4 3 3 3 3 2 2 2 2 2 2 1 1 1 1 2 1 1 2 2
0 0 0 1 1 1 1 1 2 2 2 3 3 3 3 3 3 4 4 4 4 4 5 4 4 4 4 4 3 3 4 4 4 3 3 2 2 2 2 2 2 2 2 2 2 2 2 2 3
0 0 0 1 1 1 1 1 1 2 2 3 4 3 3 3 3 4 4 4 5 5 6 5 5 5 4 4 3 3 4 5 4 3 3 2 3 3 3 3 2 2 2 2 2 2 2 3 3
0 0 0 1 1 1 1 1 1 2 2 3 3 3 3 3 3 4 5 5 6 6 6 6 5 5 4 4 4 4 4 4 4 3 2 2 2 3 3 4 3 2 2 2 2 2 3 3 3
0 0 0 0 1 1 1 1 2 2 2 2 2 2 2 3 3 4 5 6 6 6 6 5 5 5 4 4 4 4 4 3 3 2 2 2 2 2 3 3 3 2 2 2 2 2 3 4 4
0 0 0 0 1 1 1 1 2 2 2 2 2 2 3 3 3 4 4 5 6 6 5 5 4 5 5 5 4 3 3 2 2 2 2 2 2 2 2 2 2 2 2 2 2 2 3 4 4
0 0 0 0 0 0 1 1 2 2 2 2 2 3 3 3 4 4 4 5 5 5 5 4 4 4 5 5 4 3 2 2 2 2 2 2 1 1 1 1 1 1 2 2 2 2 3 3 3
0 0 0 0 0 0 0 1 2 2 2 2 3 3 3 3 4 5 5 5 6 5 5 5 4 4 5 5 4 3 2 2 2 2 2 1 1 1 1 1 1 1 1 2 2 2 2 2 2
0 0 0 0 0 0 0 1 2 2 2 3 3 3 3 4 4 5 5 5 6 6 5 5 5 5 5 5 5 4 4 3 2 2 2 2 1 1 1 1 1 1 1 1 2 2 2 2 2
0 0 0 0 0 0 0 1 2 2 2 3 3 3 3 3 4 5 4 5 6 6 5 5 6 7 8 8 7 6 6 4 2 2 2 2 2 2 1 1 1 1 1 2 2 2 2 1 1
0 0 0 0 0 0 0 1 1 2 2 3 3 2 2 3 4 4 4 4 5 6 6 5 6 7 8 8 8 8 7 5 3 2 2 2 2 2 2 1 1 1 1 2 1 1 1 1 1
0 0 0 0 0 0 0 0 1 2 2 2 2 2 2 4 4 4 3 3 4 5 6 6 6 6 7 7 8 8 8 7 4 2 2 2 2 2 1 1 1 1 1 1 1 1 1 1 1
0 0 0 0 0 0 0 0 1 1 2 2 2 2 2 4 4 4 3 4 4 5 5 6 6 6 5 6 7 7 8 8 5 2 2 2 2 1 1 1 1 1 1 1 1 1 1 1 1
0 0 0 0 0 0 0 0 1 1 2 2 2 2 2 3 4 3 4 4 3 4 5 5 5 5 5 5 6 6 6 5 4 2 2 1 1 1 1 1 1 1 1 1 1 1 1 1 1
0 0 0 0 0 0 0 1 1 1 1 2 2 2 3 3 3 3 3 3 3 3 4 5 5 5 5 5 5 5 4 3 3 3 2 2 2 1 1 1 1 1 0 1 1 1 1 1 1
0 0 0 0 0 0 0 1 1 1 1 1 2 3 3 3 3 3 3 3 3 3 4 5 5 6 6 6 5 4 3 2 3 4 3 2 2 1 1 1 1 0 0 1 1 1 1 1 1
0 0 0 0 0 0 0 1 1 1 1 2 2 2 2 2 3 3 3 3 3 3 4 5 6 7 7 6 5 4 3 3 3 3 3 2 1 1 1 1 1 1 0 1 1 1 1 1 1
0 0 0 0 0 0 0 1 1 1 1 2 2 2 1 1 2 2 2 3 3 3 4 5 6 7 6 5 4 4 3 3 4 4 3 2 1 1 1 1 1 1 1 1 1 1 1 0 0

GEFSSGP_con_maxscp_156.txt.gz
SCP
0 0 0 0 0 0 0 0 1 1 1 1 1 1 1 2 2 2 2 3 4 4 3 3 4 4 4 3 3 2 3 3 3 3 3 2 2 2 1 1 1 1 1 1 0 0 1 1 1
0 0 0 0 0 0 0 1 1 1 1 1 1 1 2 2 2 2 2 3 4 3 3 3 4 4 4 3 3 2 3 3 3 3 2 2 2 2 1 1 1 1 1 1 1 0 0 0 1
0 0 0 0 0 0 0 1 1 2 1 1 1 1 2 2 2 2 3 3 3 3 3 3 4 4 4 3 3 3 3 3 3 2 2 2 2 2 1 1 1 1 1 1 1 1 0 0 0
0 0 0 0 0 0 1 1 2 2 2 2 2 2 2 2 2 2 3 3 3 3 4 4 4 4 3 3 3 3 3 3 3 2 2 2 2 1 1 1 1 1 1 1 1 1 1 0 0
0 0 0 0 0 1 1 2 2 2 2 2 2 2 2 2 2 2 3 3 3 3 4 4 4 3 3 3 3 3 3 3 3 3 3 3 2 2 1 1 1 1 1 1 1 1 1 1 1
0 0 0 0 0 1 2 2 2 2 3 3 3 3 3 2 2 2 3 3 3 4 5 5 4 3 3 3 3 3 3 4 4 4 4 3 3 2 2 1 1 1 1 1 1 1 1 1 1
0 0 0 0 0 1 1 2 2 3 3 3 3 4 3 3 2 2 3 3 3 4 5 4 4 3 3 3 3 3 4 4 4 4 4 4 3 3 2 2 2 1 1 1 1 1 1 1 1
0 0 0 0 0 1 1 2 3 4 5 4 3 3 4 3 3 3 3 3 4 5 5 4 3 3 3 3 4 4 4 4 4 4 4 4 4 3 3 2 2 2 2 1 1 1 1 1 1
0 0 0 0 0 1 1 2 3 4 5 4 4 4 4 4 3 3 3 3 4 5 5 4 3 3 3 3 4 5 5 5 5 4 4 4 4 3 3 3 3 3 2 2 1 1 1 1 1
0 0 0 0 0 1 1 2 2 3 3 4 5 6 5 4 3 4 4 4 5 6 6 5 4 3 3 3 4 5 5 5 5 5 4 4 3 3 3 3 3 3 3 2 2 1 1 1 1
0 0 0 0 0 1 1 1 1 2 2 4 6 8 7 5 4 4 5 5 6 6 6 5 5 4 4 4 4 5 5 6 6 5 4 3 3 3 3 3 3 3 3 2 2 2 2 1 1
0 0 0 0 0 1 1 2 2 2 3 4 6 8 8 6 5 5 5 6 7 7 7 6 5 5 5 4 4 4 5 5 5 5 4 4 3 4 3 3 3 3 3 3 2 2 2 1 1
0 0 0 0 0 0 1 2 2 2 3 3 4 6 8 7 6 6 7 8 9 9 8 7 6 6 6 5 5 5 5 5 7 9 7 4 3 4 3 3 3 3 3 3 3 2 2 2 2
0 0 0 0 0 0 1 1 2 3 3 3 3 4 6 7 8 9 11 13 13 11 10 9 8 8 7 7 6 6 6 6 9 13 8 4 3 3 4 4 4 4 3 3 3 3 2 2 2
0 0 0 0 0 1 1 1 2 3 3 2 3 4 5 8 9 11 14 17 16 13 12 11 11 10 9 9 8 7 7 7 8 10 7 4 3 4 4 4 4 4 3 3 3 3 3 2 2
0 0 0 0 0 1 1 2 3 4 3 2 2 4 6 9 11 12 15 18 18 16 15 13 11 11 10 9 8 7 7 6 6 7 6 4 4 4 5 5 4 4 3 3 3 4 3 3 3
0 0 0 0 0 1 1 2 5 6 4 2 2 3 7 11 12 13 16 18 17 17 17 17 14 12 11 9 8 7 6 6 6 7 6 5 4 5 5 5 5 4 3 3 3 4 4 4 3
0 0 0 0 0 0 1 2 5 6 4 3 3 3 7 12 13 12 14 16 15 15 19 21 19 16 13 10 9 8 7 7 7 6 6 6 5 6 6 6 5 4 3 3 3 3 4 4 4
0 0 0 0 0 0 0 1 4 5 4 4 4 4 7 11 12 12 14 15 15 14 17 21 21 19 16 13 11 10 9 9 7 6 6 6 6 6 7 6 6 5 4 3 3 3 3 4 4
0 0 0 0 0 0 0 1 3 5 4 4 5 5 6 9 11 13 16 17 14 13 14 16 19 20 19 18 15 12 10 9 7 7 7 6 5 6 7 7 6 5 4 4 3 3 4 4 4
0 0 0 0 0 0 0 1 4 5 5 5 6 6 6 8 11 13 14 13 11 11 11 12 14 17 20 22 20 15 10 9 8 7 7 6 5 6 6 6 6 5 5 4 4 4 4 4 4
0 0 0 0 0 0 0 1 3 5 5 6 7 7 6 7 10 12 11 9 9 10 10 10 11 14 18 23 23 17 11 9 8 8 7 6 6 6 6 6 6 5 5 5 5 4 4 4 4
0 0 0 0 0 0 0 1 2 3 5 6 7 7 7 7 9 11 11 11 11 10 10 11 11 11 14 19 21 17 11 9 9 8 8 7 6 6 6 6 6 6 6 6 5 5 5 5 4
0 0 0 0 0 0 0 1 2 3 3 5 7 8 7 7 9 12 13 12 11 10 10 11 11 11 11 14 15 13 11 10 9 9 9 8 7 6 6 7 6 6 6 6 5 5 4 4 4
0 0 0 0 0 0 0 1 2 3 4 5 8 9 8 7 9 12 12 11 9 9 11 13 13 12 11 11 11 10 10 10 9 9 9 8 7 6 6 6 6 5 5 5 4 4 3 3 3
0 0 0 0 0 0 0 1 2 3 4 5 7 9 9 8 8 8 8 8 8 9 12 15 16 13 10 9 8 9 9 10 10 9 9 8 7 6 6 6 5 5 4 3 3 2 2 2 1
0 0 0 0 0 0 0 1 2 3 4 5 6 8 8 8 7 7 8 10 11 12 14 17 16 12 9 7 6 7 8 9 10 10 9 8 7 6 6 5 5 4 3 2 2 1 1 1 1
0 0 0 0 0 0 0 1 1 2 2 3 4 5 6 6 6 7 10 14 15 14 14 16 15 11 7 6 5 6 7 8 10 10 9 8 7 6 5 4 3 2 1 1 1 1 1 1 1
0 0 0 0 0 0 0 1 1 2 2 2 3 3 4 4 4 6 8 10 11 11 12 13 13 10 8 6 5 5 6 7 8 9 9 7 6 4 3 3 2 1 1 1 1 1 1 1 1
0 0 0 0 0 0 1 1 1 2 2 2 2 3 3 3 4 4 5 5 6 9 10 11 11 11 8 6 6 5 5 6 8 9 8 6 5 4 3 2 2 1 1 1 1 1 1 0 0

GEFSSGP_con_maxscp_162.txt.gz
SCP
0 0 0 0 0 0 0 0 0 0 1 1 2 2 1 1 1 1 1 2 2 3 3 3 3 4 4 4 3 2 2 1 1 1 1 1 2 2 2 2 2 1 1 1 0 0 1 1 1
0 0 0 0 0 0 0 0 0 0 1 2 2 2 2 1 1 1 1 2 2 3 3 3 4 5 5 4 4 3 2 2 1 1 1 1 2 2 2 2 2 1 1 1 0 0 1 1 1
0 0 0 0 0 0 0 0 0 1 2 2 2 2 2 2 2 2 2 2 2 2 3 3 5 6 5 4 4 3 2 2 1 2 2 1 1 2 2 2 1 1 1 1 0 0 0 0 0
0 0 0 0 0 0 0 0 0 1 2 3 3 2 2 2 2 2 2 2 2 2 3 4 5 6 5 4 4 3 2 2 1 1 2 2 2 2 2 1 1 1 1 0 0 0 0 0 0
0 0 0 0 0 0 0 1 1 2 3 4 4 3 3 3 3 3 3 2 2 2 3 4 5 5 4 4 3 3 3 2 2 1 1 2 2 2 2 1 1 1 1 1 1 0 0 0 0
0 0 0 0 0 0 0 1 3 3 4 5 5 4 3 3 3 3 3 2 2 3 4 5 5 5 4 3 3 3 2 2 2 1 1 1 2 2 2 1 1 1 1 1 1 1 0 0 0
0 0 0 0 0 0 0 1 2 3 4 5 5 4 3 3 3 4 4 4 3 3 4 5 5 4 4 3 3 3 2 2 2 2 1 1 1 2 1 1 1 1 1 1 1 1 1 0 1
0 0 0 0 0 0 0 1 1 2 3 3 4 3 3 3 5 6 5 5 4 4 4 5 4 4 4 3 3 3 2 2 2 2 1 1 1 1 1 1 1 1 1 1 1 1 1 1 1
0 0 0 0 0 1 1 1 2 2 3 3 3 3 3 5 7 7 6 5 5 4 4 4 4 4 4 4 3 3 3 2 2 2 2 1 1 1 1 1 1 1 1 1 1 1 1 1 1
0 0 0 0 1 1 2 2 2 2 3 3 4 5 5 7 9 8 6 6 5 4 3 3 3 4 4 4 4 3 3 2 2 2 2 2 1 1 1 1 1 1 1 1 1 1 1 1 1
0 0 0 1 1 2 2 2 2 3 3 3 5 6 8 9 9 8 7 6 5 5 4 3 3 3 4 4 4 4 3 3 3 2 2 2 2 2 1 1 1 1 1 1 1 1 1 1 1
0 0 0 1 2 2 2 2 2 3 3 4 6 9 10 11 9 8 7 7 7 6 4 4 3 3 3 3 4 4 3 3 3 3 2 2 2 2 2 2 2 2 2 5 7 5 1 1 1
0 0 1 2 2 2 2 2 3 3 4 6 9 12 14 13 10 8 8 9 8 7 6 6 5 4 3 3 3 3 3 3 2 2 2 2 2 2 2 2 2 2 2 8 13 7 1 1 1
0 0 0 1 1 1 2 2 3 3 5 8 12 14 15 13 10 9 10 11 10 9 8 8 8 6 5 4 4 3 3 3 2 2 2 2 2 2 2 2 2 1 1 5 7 5 1 1 1
0 0 0 1 1 1 2 2 2 3 5 8 11 13 13 11 9 8 11 13 11 9 9 9 10 9 7 5 4 5 5 4 2 2 2 2 2 2 2 2 1 1 1 1 1 1 1 1 0
0 0 0 0 0 1 1 2 2 3 3 5 8 10 10 9 8 9 12 13 12 11 11 11 11 10 8 6 5 6 6 5 3 2 2 2 2 2 2 2 1 1 1 1 1 1 1 0 0
0 0 0 0 0 0 1 2 3 3 3 3 5 7 9 9 10 10 11 12 12 13 14 12 11 9 8 7 6 6 7 5 3 3 3 2 2 2 2 1 1 1 1 1 1 1 1 0 0
0 0 0 0 0 0 1 2 4 4 4 4 5 6 9 11 11 11 10 10 11 12 12 11 10 8 8 7 6 7 7 5 3 3 3 3 2 2 2 1 1 1 1 1 1 1 1 1 1
0 0 0 0 0 0 1 2 4 5 5 5 5 7 9 11 11 11 11 11 11 11 10 10 10 8 7 8 7 7 6 4 3 3 3 3 2 2 2 1 1 1 1 1 1 1 1 1 1
0 0 0 0 0 0 1 2 4 5 5 5 6 7 8 9 10 11 12 13 13 12 11 10 10 9 8 7 7 6 5 4 4 3 3 3 2 2 2 1 1 1 1 1 1 1 1 1 1
0 0 0 0 0 0 0 1 2 4 4 5 5 6 6 6 8 11 14 18 19 15 11 10 9 9 8 7 6 6 5 4 4 3 3 3 2 2 2 1 1 1 2 2 2 1 1 1 1
0 0 0 0 0 0 0 1 2 3 4 5 5 4 4 4 7 12 15 18 19 16 11 9 10 10 10 8 7 6 5 4 3 3 2 2 2 2 2 1 2 2 2 1 1 1 1 1 1
0 0 0 0 0 0 0 0 1 2 3 4 5 5 4 3 6 12 14 14 14 13 11 10 10 11 11 9 8 7 5 4 3 2 2 2 2 2 2 2 2 2 1 1 1 1 1 1 1
0 0 0 0 0 0 0 0 1 1 2 4 6 6 5 4 6 11 13 13 12 11 12 12 11 11 11 10 9 7 6 5 4 3 2 2 2 2 2 2 2 2 1 1 1 1 1 1 1
0 0 0 0 0 0 0 0 0 1 2 4 6 7 7 6 7 10 13 14 12 11 13 14 12 11 12 12 10 8 7 5 4 3 2 2 2 2 2 2 2 2 1 1 1 1 1 1 1
0 0 0 0 0 0 0 0 0 1 1 3 5 7 9 8 7 8 11 12 11 11 13 13 12 12 13 13 11 10 8 6 4 3 3 2 2 2 2 2 2 2 2 1 1 1 1 1 1
0 0 0 0 0 0 0 0 0 1 1 2 3 7 9 9 7 6 7 8 9 9 10 10 10 11 13 13 12 11 11 8 6 4 4 3 2 2 3 3 2 2 2 1 1 1 0 0 0
0 0 0 0 0 0 0 0 0 1 1 1 3 6 8 7 6 5 5 6 7 7 7 7 8 10 11 11 9 10 11 10 8 6 4 4 3 3 4 3 3 2 1 1 0 0 0 0 0
0 0 0 0 0 0 0 0 0 1 1 1 2 4 5 6 6 5 4 4 5 6 6 6 6 7 7 7 6 7 9 9 8 6 5 4 4 4 4 4 3 2 1 0 0 0 0 0 0
0 0 0 0 0 0 0 0 0 1 1 1 2 2 4 5 6 5 4 3 4 5 6 5 5 5 5 5 5 6 7 7 6 5 4 4 4 4 4 4 2 1 1 0 0 0 0 0 0

GEFSSGP_con_maxscp_168.txt.gz
SCP
0 0 0 0 0 0 0 0 0 0 0 0 1 1 1 1 1 1 1 1 2 2 3 4 5 5 4 3 2 3 3 3 3 3 2 2 2 2 2 1 1 1 1 1 1 1 1 1 1
0 0 0 0 0 0 0 0 0 0 0 1 1 1 1 1 1 1 1 1 2 2 3 4 4 5 4 3 3 3 3 3 3 3 2 2 2 2 2 1 1 1 1 1 1 1 1 1 1
0 0 0 0 0 0 0 0 0 0 1 1 1 2 1 1 1 1 2 2 2 2 3 4 4 5 4 4 3 3 3 3 3 3 3 3 2 2 2 1 1 1 1 1 1 1 1 1 1
0 0 0 0 0 0 0 0 0 0 1 1 2 2 2 1 1 2 2 2 2 2 3 4 5 5 5 4 4 3 3 3 3 3 3 3 2 2 2 1 1 1 1 1 1 1 1 1 1
0 0 0 0 0 0 0 0 0 1 1 1 2 2 2 2 2 3 3 3 2 3 3 4 6 6 6 5 4 3 3 3 3 3 3 3 2 2 2 2 1 1 1 1 1 1 1 1 1
0 0 0 0 0 0 0 0 1 1 2 2 2 2 2 2 3 3 3 3 3 3 4 4 5 6 6 5 4 3 3 3 3 3 3 3 2 2 2 2 2 2 2 2 1 1 1 1 1
0 0 0 0 0 0 0 0 1 2 2 2 2 2 2 3 3 3 3 3 3 4 4 4 5 5 5 5 4 4 3 3 3 3 3 2 2 2 2 2 2 2 2 2 2 2 1 1 1
0 0 0 0 0 0 0 1 1 2 2 2 2 1 2 3 4 4 3 3 3 4 4 4 4 5 5 5 4 4 4 3 3 3 2 2 2 2 2 2 2 2 2 2 2 2 1 1 1
0 0 0 0 0 0 0 1 1 1 1 1 1 2 2 4 5 5 5 4 4 4 4 4 4 4 4 4 4 4 4 4 3 2 2 2 2 2 2 2 2 2 2 2 2 2 1 1 1
0 0 0 0 0 0 0 0 1 1 1 1 2 2 3 5 8 8 7 5 5 4 4 4 4 4 4 4 4 4 5 4 3 2 2 2 2 2 2 2 2 2 3 2 2 2 1 1 1
0 0 0 0 0 0 1 1 1 1 1 2 2 3 4 7 9 9 8 7 6 5 4 4 4 4 4 3 4 4 5 4 3 3 2 2 2 2 2 2 2 3 3 3 3 2 2 1 1
0 0 0 0 0 1 1 1 1 1 1 2 3 4 5 7 9 10 9 8 6 5 4 4 4 4 4 3 4 4 5 5 4 3 3 2 2 2 2 2 2 3 3 3 3 2 2 1 1
0 0 0 0 0 1 1 1 1 2 2 3 3 4 6 8 10 10 10 9 7 5 4 4 4 4 4 4 4 4 5 5 4 3 3 3 2 2 2 2 2 2 2 3 2 2 2 1 1
0 0 0 0 0 1 1 1 2 2 3 3 4 4 7 10 11 11 11 10 8 5 4 4 5 5 4 4 4 4 5 5 3 3 3 3 2 2 2 1 1 1 2 2 2 2 2 1 1
0 0 0 0 0 1 1 1 1 2 3 3 3 4 7 10 11 11 11 11 9 6 4 5 5 5 4 3 4 5 5 4 3 2 2 2 2 2 1 1 1 1 1 1 2 2 2 1 1
0 0 0 0 0 0 1 1 1 2 3 3 3 3 5 7 9 9 9 10 9 7 6 6 5 4 3 3 3 4 5 4 2 2 2 2 2 2 1 1 1 1 1 1 1 1 1 1 1
0 0 0 0 0 0 0 1 1 2 3 3 2 3 3 5 5 6 7 8 7 7 8 7 5 4 3 3 3 4 4 3 2 2 2 2 2 2 1 1 1 1 1 1 1 1 1 1 1
0 0 0 0 0 0 0 1 1 2 3 3 2 2 3 3 4 4 5 6 6 7 8 7 6 5 5 5 4 4 4 3 2 2 2 2 2 2 1 1 1 1 1 1 1 1 1 1 1
0 0 0 0 0 0 0 1 1 2 2 3 2 2 2 2 3 3 4 5 5 6 7 7 6 6 7 7 7 6 4 3 2 2 2 2 2 2 1 1 1 1 1 1 1 1 1 1 1
0 0 0 0 0 0 0 1 1 2 2 2 3 2 2 2 2 2 3 4 5 5 6 6 6 6 8 9 9 7 5 3 3 2 2 2 2 2 1 1 1 1 1 1 1 1 1 1 1
0 0 0 0 0 0 0 1 1 2 2 2 2 2 2 2 2 1 2 4 5 5 5 5 6 7 9 11 11 9 7 5 4 3 3 3 2 2 2 1 1 1 1 1 1 1 1 1 1
0 0 0 0 0 0 0 1 1 2 2 2 2 1 1 2 2 1 2 3 4 4 5 5 6 8 11 13 13 11 9 7 5 5 4 3 2 2 2 1 1 1 1 1 1 1 1 1 1
0 0 0 0 0 0 0 0 1 2 2 2 2 2 2 2 2 2 2 3 4 4 4 6 7 9 12 14 14 13 11 8 7 5 4 3 2 1 1 1 1 1 1 1 1 1 1 1 1
0 0 0 0 0 0 0 0 1 1 2 2 2 2 2 2 3 4 4 3 3 4 4 5 7 8 10 13 14 13 11 9 7 6 4 3 2 1 1 1 1 1 1 1 1 1 1 1 1
0 0 0 0 0 0 0 0 0 1 1 2 2 2 2 3 4 5 5 4 4 4 4 4 6 6 8 11 13 13 11 9 7 6 4 3 2 2 2 2 1 1 1 1 1 1 1 1 1
0 0 0 0 0 0 0 0 0 1 1 2 2 2 2 2 3 4 4 4 4 4 4 5 5 5 6 8 10 11 10 9 7 6 4 3 3 3 3 2 2 2 2 1 1 1 1 1 1
0 0 0 0 0 0 0 0 0 1 1 2 2 2 2 2 2 2 3 4 5 5 6 5 5 5 6 6 8 9 9 7 5 5 4 4 4 4 4 3 3 2 2 2 2 2 1 1 1
0 0 0 0 0 0 0 0 0 0 1 1 2 1 1 1 1 2 3 4 5 6 6 5 4 5 6 7 8 8 8 6 5 4 4 5 5 5 4 4 3 2 2 2 2 2 2 1 1
0 0 0 0 0 0 0 0 0 0 1 1 1 1 1 1 1 2 3 4 5 5 5 3 3 4 6 8 9 9 8 6 5 4 5 5 5 5 4 4 3 2 2 2 2 2 1 1 0
0 0 0 0 0 0 0 0 0 0 0 1 1 1 1 1 1 2 3 4 4 4 4 3 2 4 6 8 9 9 7 6 4 4 5 5 5 5 4 4 3 3 2 2 2 2 1 1 0

GEFSSGP_con_maxscp_174.txt.gz
SCP
0 0 0 0 0 0 0 0 0 0 0 0 1 1 1 1 1 1 1 2 3 4 5 5 4 4 3 3 2 2 3 3 3 3 3 3 2 2 2 1 1 1 1 1 1 1 1 1 1
0 0 0 0 0 0 0 0 0 0 0 1 1 1 1 1 1 1 2 2 3 4 5 5 4 4 3 3 2 2 3 3 3 3 3 3 2 2 2 1 1 1 1 1 1 1 1 1 1
0 0 0 0 0 0 0 0 0 0 0 1 2 2 2 1 1 1 2 3 3 4 5 5 5 4 3 3 3 3 3 3 3 3 3 3 2 2 2 2 1 1 1 1 1 1 1 1 1
0 0 0 0 0 0 0 0 0 0 1 1 2 2 1 1 2 2 3 3 3 4 5 5 5 4 4 3 3 3 4 4 4 4 3 3 3 2 2 2 1 1 1 1 1 1 1 1 1
0 0 0 0 0 0 0 0 0 1 1 2 2 2 1 2 2 3 3 3 3 3 4 5 5 4 4 3 3 3 4 4 4 4 3 3 3 2 2 2 2 1 1 1 1 1 1 1 1
0 0 0 0 0 0 0 0 1 1 2 2 2 2 2 2 2 3 4 3 3 3 4 5 5 4 4 3 3 3 3 4 4 4 4 4 3 3 2 2 2 2 2 1 1 1 1 1 1
0 0 0 0 0 1 1 1 1 2 2 2 2 2 2 2 3 3 4 4 4 3 4 4 4 4 4 3 3 3 3 3 3 4 4 4 4 3 3 2 2 2 2 2 2 2 2 2 2
0 0 0 0 0 1 2 2 3 3 3 3 2 1 2 3 3 4 4 4 5 5 5 4 4 4 4 3 3 3 3 3 3 3 4 4 4 3 3 3 3 3 2 2 2 2 2 2 1
0 0 0 0 0 1 2 4 4 4 3 3 2 2 3 4 4 4 5 5 6 6 6 5 4 4 4 3 3 3 3 3 3 3 3 3 3 3 3 3 3 3 2 2 2 2 2 1 1
0 0 0 0 0 1 2 3 4 3 2 2 2 3 4 4 4 5 5 6 7 7 6 5 4 4 4 4 4 4 4 3 3 3 3 3 3 3 3 3 4 3 3 2 2 2 2 1 1
0 0 0 0 0 1 1 2 2 2 1 1 2 3 4 4 4 4 4 6 7 8 7 6 5 4 4 4 4 4 4 4 4 4 4 4 4 4 4 4 4 4 3 3 2 2 2 1 1
0 0 0 0 0 1 1 1 2 2 2 2 2 3 4 4 3 3 3 5 8 9 8 7 5 5 5 5 4 4 4 4 4 5 5 5 5 5 5 4 4 4 4 3 3 3 2 2 2
0 0 0 0 1 1 2 2 2 2 2 2 3 3 4 4 3 3 3 4 7 9 9 8 7 6 6 6 5 5 5 5 5 6 6 6 6 5 4 4 5 5 4 4 3 3 3 3 2
0 0 0 0 1 1 2 2 2 3 3 3 3 4 4 3 3 3 3 4 6 8 9 9 8 7 7 7 6 5 5 6 6 7 7 6 6 5 4 4 4 4 4 4 3 3 3 3 3
0 0 0 0 1 1 1 2 3 3 3 4 4 4 3 3 3 3 3 4 5 6 7 8 8 7 7 6 6 5 6 7 8 8 7 6 5 5 4 4 4 3 4 4 3 3 3 3 3
0 0 0 0 1 1 1 1 2 3 4 5 4 4 3 2 2 3 3 3 4 4 5 6 7 7 6 6 6 6 6 8 9 8 7 6 5 4 4 4 3 4 4 4 3 3 3 3 3
0 0 0 0 0 1 1 1 2 2 3 4 4 3 2 2 2 2 3 3 3 3 4 4 5 6 7 7 7 7 7 7 7 7 6 5 5 4 4 3 3 3 3 3 3 3 3 4 3
0 0 0 0 0 1 1 2 2 2 3 3 3 2 2 2 2 2 2 3 3 3 4 4 5 6 8 9 9 8 6 5 5 5 5 5 5 4 3 3 3 3 3 3 3 3 3 4 3
0 0 0 0 0 1 1 2 2 2 2 3 3 2 2 2 2 2 2 3 3 4 5 5 6 7 8 10 11 9 6 5 4 5 5 5 5 4 3 3 3 3 3 3 3 3 3 3 3
0 0 0 0 0 1 1 1 1 1 2 2 2 2 2 2 2 2 2 4 5 6 6 6 7 8 9 9 9 8 6 5 5 5 6 7 6 5 5 4 4 4 3 3 3 3 2 2 2
0 0 0 0 0 1 1 1 1 1 1 2 2 2 2 3 3 3 4 5 6 6 6 5 6 8 8 7 6 6 5 5 6 7 8 8 7 7 6 5 4 4 3 3 3 3 2 2 2
0 0 0 0 0 0 1 1 1 1 2 2 3 3 3 3 4 4 5 5 5 5 4 4 5 7 7 5 4 4 5 6 7 9 10 9 9 8 7 6 4 4 3 3 3 3 3 3 3
0 0 0 0 0 0 0 1 1 2 2 2 3 3 3 3 4 4 4 3 3 4 4 4 5 6 6 5 4 5 6 7 8 9 11 12 12 10 8 6 4 4 3 3 3 3 3 3 3
0 0 0 0 0 0 0 1 1 2 2 2 2 2 2 3 3 3 3 2 2 3 4 4 4 5 5 4 4 5 6 6 7 8 10 12 13 12 8 5 4 4 4 3 3 3 3 3 3
0 0 0 0 0 0 0 1 2 2 2 2 2 2 2 3 3 3 2 2 2 2 3 4 4 5 5 5 5 5 6 6 6 7 9 10 11 10 8 6 5 5 4 4 3 3 3 3 3
0 0 0 0 0 0 0 1 2 2 2 2 2 2 2 3 3 2 2 2 2 3 4 4 5 5 5 5 6 6 5 5 5 6 7 8 9 8 7 6 6 5 5 4 4 3 3 4 4
0 0 0 0 0 0 0 1 1 1 1 1 1 2 3 3 3 2 2 2 3 3 4 4 5 4 4 4 5 5 5 5 5 6 7 7 6 6 6 6 6 5 5 4 4 4 3 3 3
0 0 0 0 0 0 0 1 1 1 1 1 1 2 3 3 3 3 3 3 3 3 3 3 4 4 3 4 4 5 4 4 5 6 7 7 6 6 6 6 6 6 5 4 4 4 3 3 3
0 0 0 1 1 1 0 0 1 1 1 1 1 2 2 2 2 3 3 3 3 2 1 2 2 3 3 4 5 5 4 3 4 5 7 7 7 7 7 7 7 6 5 4 4 3 3 2 2
0 0 0 1 1 1 1 0 1 1 1 1 1 1 2 2 2 2 3 3 2 2 1 1 2 2 3 5 6 5 3 3 3 5 6 7 8 8 8 8 7 7 5 4 3 3 2 2 2

GEFSSGP_con_maxscp_180.txt.gz
SCP
0 0 0 0 0 0 0 0 0 0 0 0 0 1 2 2 1 1 2 2 4 5 5 4 5 4 3 3 3 2 2 2 2 2 3 3 3 2 2 2 2 1 1 1 1 1 1 1 1
0 0 0 0 0 0 0 0 0 0 0 0 0 1 2 2 2 1 2 3 5 6 5 5 5 4 4 3 3 3 2 2 2 2 3 3 2 2 2 2 2 1 1 1 1 1 1 1 1
0 0 0 0 0 0 0 0 0 1 1 1 1 2 3 2 2 2 2 4 5 6 5 5 5 5 4 4 4 3 3 3 3 3 3 2 2 2 2 2 2 2 1 1 1 1 1 1 1
0 0 0 0 0 0 0 0 0 1 2 3 2 3 4 3 2 2 3 4 5 6 6 6 6 6 5 4 4 4 3 3 3 3 3 3 2 2 2 2 2 2 2 2 2 2 1 1 1
0 0 0 0 0 1 1 1 1 1 2 3 3 3 5 5 4 4 4 4 5 6 7 7 6 6 6 5 4 4 4 4 3 3 3 3 3 3 3 2 2 2 2 2 2 2 2 1 1
0 0 0 0 0 1 2 2 2 1 1 1 2 3 4 5 5 4 3 4 5 6 8 8 7 6 6 5 4 4 4 4 3 3 3 3 3 3 3 3 3 2 2 2 2 3 2 2 2
0 0 0 0 1 1 2 2 2 2 2 1 1 2 3 4 5 4 4 4 5 7 8 9 8 7 6 5 4 4 4 4 4 3 3 3 3 3 3 3 3 3 2 2 2 3 3 2 2
0 0 0 1 1 1 1 1 1 2 3 2 2 2 2 3 4 4 4 4 4 7 9 10 8 7 6 5 5 5 4 4 4 3 3 3 3 3 3 3 3 3 3 2 2 2 2 2 2
0 0 0 1 1 1 1 1 1 2 3 3 3 3 4 4 4 4 4 4 5 7 10 11 9 8 6 6 6 5 5 4 4 3 3 3 3 3 3 3 4 4 3 2 2 2 2 2 2
0 0 0 0 0 1 1 1 1 1 2 3 4 5 6 5 5 4 5 5 6 7 10 12 10 8 7 6 6 6 5 5 4 4 4 4 4 3 3 4 4 4 3 3 2 2 2 2 2
0 0 0 0 0 0 1 1 1 2 3 3 4 6 7 6 5 5 5 6 7 8 10 13 13 10 8 7 7 7 6 5 5 5 5 6 6 5 4 17 25 17 3 3 2 2 2 2 2
0 0 0 0 0 1 1 1 2 2 3 4 4 6 7 7 6 7 7 6 7 9 11 14 15 12 11 12 11 8 7 6 6 6 8 8 7 6 5 26 47 25 4 3 2 2 2 2 2
0 0 0 0 0 1 1 2 2 2 3 4 6 7 7 7 7 8 8 7 7 8 10 13 15 15 16 17 14 10 8 7 7 7 9 8 7 7 6 19 26 17 4 3 3 3 2 2 2
0 0 0 0 0 1 1 1 2 2 3 5 6 6 6 6 6 7 7 7 8 9 11 13 14 15 17 17 15 12 10 8 7 7 8 7 6 6 7 7 7 6 5 5 4 4 4 3 2
0 0 0 0 1 1 1 1 2 3 4 5 5 5 5 6 6 6 7 7 9 10 12 13 13 13 14 14 13 12 10 8 8 8 8 7 6 6 6 7 7 7 7 6 5 5 5 4 2
0 0 0 0 1 1 1 1 3 4 4 4 4 5 6 7 7 7 7 8 9 10 12 14 13 12 12 13 13 11 9 8 8 8 8 7 6 6 6 6 7 7 7 7 6 5 5 3 2
0 0 0 0 1 1 1 2 3 3 3 4 4 5 6 7 7 7 7 9 10 12 13 14 13 11 12 13 13 10 8 7 8 8 7 7 7 6 6 6 7 7 7 7 6 5 4 3 3
0 0 0 0 0 1 1 2 3 4 3 4 4 5 5 5 5 6 7 9 12 14 13 13 12 11 12 13 12 9 7 7 7 7 7 7 7 7 6 7 7 6 7 7 6 5 4 3 3
0 0 0 0 0 1 1 3 4 4 4 4 4 4 5 5 5 5 6 9 11 12 11 10 10 11 13 13 11 9 7 7 7 6 6 7 8 8 7 7 7 6 5 5 5 5 5 4 3
0 0 0 0 0 1 1 2 3 4 4 4 4 4 5 5 6 7 7 8 9 10 9 8 7 9 11 11 10 9 8 7 6 5 5 6 7 8 8 7 7 6 5 4 5 5 5 4 3
0 0 0 0 0 1 1 2 3 3 3 4 4 5 5 6 8 9 8 8 8 8 7 6 6 7 7 8 7 8 8 8 6 6 6 6 7 8 8 8 7 6 5 4 5 6 6 5 4
0 0 0 0 0 0 0 1 3 4 4 5 7 8 7 7 8 9 8 9 9 8 7 6 7 7 6 6 5 6 7 8 7 7 7 7 6 7 8 8 7 6 5 5 6 7 7 6 5
0 0 0 0 0 0 0 1 3 4 5 7 9 10 8 6 6 7 8 8 10 10 9 8 9 8 7 7 6 6 7 8 7 7 8 8 7 6 7 8 8 6 5 5 6 8 9 7 6
0 0 0 0 0 0 0 1 3 4 4 5 7 8 7 6 5 6 6 6 8 10 10 10 9 8 8 7 7 7 7 7 6 6 7 8 7 7 7 7 7 7 6 6 7 9 10 8 6
0 0 0 0 0 0 0 1 2 3 3 4 4 4 6 5 5 5 4 4 6 7 8 8 8 7 6 6 6 7 8 7 6 5 6 6 6 6 6 6 6 7 6 6 7 9 9 7 6
0 0 0 0 0 0 0 1 2 3 4 4 3 3 4 5 4 4 4 4 5 6 6 6 6 5 5 5 6 7 8 7 6 5 4 4 4 4 4 4 5 6 6 6 6 7 8 7 6
0 0 0 0 0 0 0 1 3 5 5 3 2 2 3 3 4 4 5 5 6 6 7 7 6 4 4 4 5 6 6 6 5 4 3 3 3 3 3 3 4 5 6 6 6 6 7 6 6
0 0 0 0 0 0 0 1 2 4 4 3 2 2 2 2 4 6 6 7 7 7 8 7 5 3 3 3 3 4 4 4 4 3 3 3 3 2 2 2 3 5 6 7 6 6 7 7 6
0 0 0 1 1 1 1 1 2 2 2 1 2 2 2 3 5 7 8 7 6 7 7 6 3 2 3 3 3 3 3 3 3 3 3 3 2 2 1 1 2 3 5 7 7 7 7 7 6
0 0 0 1 1 1 1 1 1 1 1 1 1 2 3 5 7 9 9 7 6 6 6 4 2 2 2 2 2 3 3 2 3 3 3 2 2 1 1 1 1 2 4 7 7 7 6 6 7

GEFSSGP_con_maxscp_186.txt.gz
SCP
0 0 0 0 0 0 0 0 0 0 1 1 2 2 2 3 2 2 2 2 3 4 5 5 5 4 4 4 4 4 4 3 2 2 3 3 2 2 2 2 2 2 2 2 2 1 1 1 1
0 0 0 0 0 0 0 0 0 1 1 1 2 2 2 2 2 2 2 2 3 4 4 5 4 5 5 5 4 4 4 3 3 2 3 2 2 2 2 2 2 2 2 2 2 2 2 1 1
0 0 0 0 0 0 0 0 1 1 2 2 2 2 2 2 2 2 2 2 3 3 4 4 5 5 5 5 5 5 4 4 4 3 3 3 2 2 2 2 2 2 2 2 2 2 2 2 2
0 0 0 0 0 0 0 1 1 1 2 2 2 2 2 1 2 2 3 3 3 3 4 5 6 6 6 6 6 5 5 4 4 4 3 3 3 2 2 2 2 2 3 3 2 2 3 2 2
0 0 0 0 0 1 1 1 1 1 1 2 2 2 2 2 3 4 4 4 3 3 3 5 6 6 6 6 6 6 5 5 4 4 4 4 3 3 2 2 2 2 3 2 2 2 3 3 3
0 0 0 0 0 1 1 1 1 1 1 2 2 2 2 2 3 4 4 4 3 3 3 4 6 7 6 5 5 6 6 5 5 5 4 4 3 3 3 2 2 2 2 2 2 2 2 3 3
0 0 0 0 0 0 1 1 1 1 2 2 2 2 2 2 3 4 4 4 3 3 3 4 5 6 6 5 5 5 5 5 5 5 5 4 3 3 3 3 2 2 2 2 2 2 2 2 3
0 0 0 0 0 0 1 1 1 1 1 1 2 2 2 3 4 5 5 5 4 4 4 4 4 5 6 6 5 4 5 5 5 5 5 4 3 3 3 3 2 2 2 2 2 2 2 2 2
0 0 0 0 0 0 0 1 1 2 2 1 2 2 2 3 5 7 7 6 6 6 6 5 4 4 4 5 4 4 4 5 5 5 5 5 4 3 3 3 2 2 2 2 2 2 2 2 2
0 0 0 0 0 0 1 1 1 2 2 2 2 2 2 4 6 7 8 7 7 8 8 7 5 4 4 4 5 5 4 5 5 5 5 5 4 4 3 2 2 2 2 2 2 2 2 2 2
0 0 0 0 1 1 1 2 2 3 3 2 2 2 4 5 6 7 7 7 7 8 10 9 7 5 5 5 5 5 5 5 5 5 5 5 5 4 3 2 2 2 2 2 2 2 2 2 2
0 0 0 0 1 1 1 2 3 3 3 3 3 4 5 6 6 7 7 7 7 8 10 10 9 7 6 5 5 5 5 6 6 5 5 5 5 4 3 3 2 2 2 2 2 2 2 2 2
0 0 0 0 0 1 1 2 3 3 3 3 4 5 6 6 6 6 6 8 8 8 8 9 10 9 8 6 5 6 6 6 6 6 5 5 5 4 4 3 2 2 2 2 1 1 2 1 1
0 0 0 0 0 1 1 2 2 3 4 4 4 4 5 6 6 6 7 8 8 8 7 8 9 10 9 8 7 7 7 7 6 6 6 5 5 4 4 3 3 2 2 2 1 1 1 1 1
0 0 0 0 0 1 2 2 3 3 4 4 4 4 5 6 6 7 7 8 9 8 7 7 7 9 9 9 8 8 8 7 6 6 7 6 5 4 4 3 3 3 3 2 2 1 1 1 1
0 0 0 0 0 1 1 3 4 4 4 3 4 6 7 8 7 7 8 9 9 9 8 7 7 7 9 9 9 9 9 8 7 7 8 7 6 5 4 3 3 3 2 2 2 1 1 1 1
0 0 0 0 0 0 1 3 4 5 4 4 6 9 11 10 9 8 9 9 9 8 8 8 7 6 7 9 9 10 9 9 9 9 9 8 7 7 5 4 3 2 2 2 1 1 1 1 1
0 0 0 0 0 0 1 2 4 5 5 5 8 11 13 12 10 9 9 8 7 7 7 8 7 6 6 7 8 9 8 8 8 8 8 8 7 7 6 4 3 2 2 2 1 1 1 1 1
0 0 0 0 0 1 1 2 3 4 5 6 8 11 12 11 9 8 8 7 6 6 7 7 7 6 5 4 5 6 6 6 6 6 6 7 7 7 6 4 3 3 3 2 2 1 1 1 1
0 0 0 0 0 0 1 1 2 3 4 5 7 10 11 9 7 7 7 7 5 5 6 6 6 5 4 4 4 5 5 4 4 4 5 6 6 6 6 5 3 4 4 3 2 2 1 1 1
0 0 0 0 0 0 1 1 2 3 3 4 5 7 7 6 6 6 6 6 4 4 4 4 5 5 5 4 4 4 4 4 3 3 4 6 6 6 6 5 4 4 4 4 3 2 2 2 2
0 0 0 0 0 0 0 1 2 3 3 3 4 4 4 4 5 5 5 4 3 2 3 4 4 4 4 4 4 4 3 3 2 3 4 5 6 6 6 5 5 5 5 5 4 3 3 2 2
0 0 0 0 0 0 0 1 2 3 3 3 3 3 3 3 3 3 3 2 2 2 2 3 3 3 3 3 3 3 3 2 2 2 3 4 5 5 5 4 4 4 4 5 5 4 3 3 3
0 0 0 0 0 0 0 1 1 2 3 3 2 2 2 2 2 1 2 2 2 2 3 3 2 2 2 2 2 2 2 2 1 2 3 4 4 3 3 3 2 2 2 3 5 5 5 4 3
0 0 0 0 0 0 0 1 1 2 2 2 2 2 2 2 2 1 1 1 2 3 3 3 2 1 1 1 1 1 1 1 1 1 2 2 2 2 1 1 1 1 1 1 3 4 5 5 4
0 0 0 0 0 0 1 2 2 2 2 1 1 1 2 2 2 1 1 1 3 4 4 3 2 1 1 1 1 1 1 1 1 1 2 2 1 1 1 1 1 0 0 0 1 3 4 5 5
0 0 0 0 0 1 2 3 3 2 1 1 1 1 2 2 1 1 1 2 3 5 6 4 2 1 1 0 0 0 0 1 1 1 1 1 1 1 1 1 0 0 0 0 0 1 3 5 5
0 0 0 0 0 1 2 3 3 2 1 0 0 1 1 1 1 1 1 2 4 7 6 4 2 1 1 0 0 0 0 0 1 1 2 1 1 1 1 0 0 0 0 0 0 0 1 3 3
0 0 0 0 0 0 1 2 2 1 0 0 0 1 1 1 1 1 1 3 6 8 7 4 2 1 1 0 0 0 0 0 1 2 2 1 1 1 0 0 0 0 0 0 0 0 0 1 1
0 0 0 0 0 0 1 1 1 0 0 0 0 1 1 1 1 1 1 3 7 9 7 4 2 1 1 0 0 0 0 0 1 2 2 1 1 1 0 0 0 0 0 0 0 0 0 0 0

GEFSSGP_con_maxscp_192.txt.gz
SCP
0 0 0 0 0 0 0 0 0 0 0 1 1 1 1 1 1 1 1 1 2 3 5 7 7 7 6 6 6 6 5 5 5 4 4 3 3 4 4 4 4 4 3 3 3 2 2 2 2
0 0 0 0 0 0 0 0 0 0 1 1 1 1 1 1 1 1 1 2 2 4 5 6 7 7 7 6 6 5 5 5 4 4 4 3 3 3 3 4 4 4 4 3 3 2 2 2 2
0 0 0 0 0 0 0 0 0 1 1 2 2 1 1 1 1 1 1 2 3 4 5 6 8 9 8 6 5 5 4 4 4 4 3 3 3 2 2 3 3 4 4 3 3 2 2 2 2
0 0 0 0 1 1 0 0 0 1 1 1 1 1 1 1 1 1 2 3 4 4 4 6 9 10 8 6 5 4 4 3 3 3 3 3 2 2 2 2 3 3 3 3 3 2 2 2 2
0 0 0 0 1 1 0 0 0 1 1 1 1 1 2 1 1 2 2 3 3 4 4 6 9 10 9 7 5 4 4 4 3 3 2 2 2 2 2 2 2 2 2 2 2 2 2 2 2
0 0 0 0 1 1 0 0 0 1 1 1 1 2 2 1 1 2 2 3 3 3 4 6 8 9 9 8 6 5 5 5 4 3 3 2 2 2 2 2 2 2 2 2 2 2 2 2 2
0 0 0 0 1 1 0 1 1 1 1 1 1 1 1 1 1 2 3 3 3 3 4 5 6 7 8 7 7 6 6 5 4 4 4 4 3 2 2 2 2 2 2 2 3 3 2 2 2
0 0 0 0 0 0 0 1 1 1 1 1 1 1 1 1 2 3 4 4 4 4 4 4 4 5 5 6 6 6 6 5 5 6 8 8 5 3 2 2 2 2 2 2 2 3 2 1 1
0 0 0 0 0 0 0 1 1 1 1 1 1 1 1 2 3 4 5 5 5 5 4 4 3 3 3 4 4 6 6 5 6 8 12 11 7 4 2 2 2 2 2 1 2 2 2 2 2
0 0 0 0 0 0 0 1 1 1 1 1 2 2 3 4 5 5 5 5 6 5 5 4 3 3 3 3 4 4 5 4 5 8 11 10 7 5 4 3 2 2 2 1 1 1 2 2 3
0 0 0 0 0 0 1 1 1 1 2 2 3 4 4 5 5 5 5 6 6 6 5 5 4 3 3 3 3 3 3 3 3 6 8 7 6 5 5 4 3 2 2 2 1 1 2 3 3
0 0 0 0 0 0 1 2 2 2 2 3 4 5 5 4 5 5 6 6 6 6 5 5 4 3 2 3 3 2 2 2 2 4 6 6 5 5 5 4 3 3 2 2 2 2 2 2 2
0 0 0 0 0 1 1 2 3 3 3 4 5 5 4 4 4 5 6 6 6 6 6 6 5 3 2 2 2 2 2 2 2 4 5 5 5 4 4 4 3 3 2 2 2 2 1 1 1
0 0 0 0 0 1 2 2 3 3 3 4 4 4 3 3 3 4 5 6 7 7 8 8 6 4 2 2 2 3 2 2 2 3 4 4 4 4 4 3 3 2 2 2 2 2 1 1 1
0 0 0 0 0 1 1 2 3 3 3 3 3 2 2 2 2 3 4 5 7 8 9 8 6 4 2 2 3 3 3 3 3 3 3 3 3 3 3 3 2 2 2 2 2 1 1 1 1
0 0 0 0 0 0 1 1 2 2 2 2 2 2 2 2 2 2 3 4 6 8 8 7 5 3 2 2 2 3 3 3 3 3 3 3 3 3 2 2 2 2 2 2 2 1 1 1 1
0 0 0 0 0 0 0 1 1 2 2 2 2 2 2 2 2 2 2 2 4 5 6 5 4 3 2 2 2 2 2 2 3 3 3 3 2 2 2 2 1 2 2 2 2 1 1 1 1
0 0 0 0 0 0 0 1 1 1 2 2 2 2 2 2 2 2 2 2 2 3 4 4 4 3 3 2 2 2 2 2 2 2 2 2 2 2 2 2 2 2 2 2 2 2 1 1 1
0 0 0 0 0 0 0 1 1 1 1 2 2 2 3 3 2 3 3 3 3 3 3 4 4 3 2 2 2 1 2 2 2 2 1 2 2 3 3 3 3 3 2 2 2 2 2 2 2
0 0 0 0 0 0 0 1 1 1 1 1 2 3 4 3 3 3 4 4 3 3 2 2 2 2 2 2 1 1 1 2 2 2 1 1 2 4 5 4 4 4 3 3 2 3 3 2 2
0 0 0 0 0 0 0 0 1 1 1 1 2 3 4 4 3 2 3 3 3 3 2 1 1 2 2 2 1 1 1 1 2 2 1 1 1 2 4 5 5 4 4 4 3 3 3 3 2
0 0 0 0 0 0 0 0 0 1 1 1 2 3 3 3 2 2 2 2 2 2 1 1 1 2 2 1 1 0 1 1 1 1 1 1 1 1 3 4 4 4 4 4 3 3 3 3 3
0 0 0 0 0 0 0 0 0 1 1 1 2 2 3 3 2 2 1 1 1 1 1 1 1 1 1 1 0 0 1 1 1 1 1 1 1 1 2 3 4 4 3 3 2 2 3 3 3
0 0 0 0 0 0 0 0 0 0 1 1 1 2 2 2 2 2 1 1 1 1 1 1 1 1 1 1 0 1 1 1 1 1 1 1 1 1 2 2 3 2 2 2 1 1 1 2 1
0 0 0 0 0 0 0 0 1 1 1 1 1 1 1 2 2 2 1 1 1 1 1 1 1 1 1 1 1 0 0 0 1 0 0 0 0 1 1 1 1 1 1 1 0 0 0 1 0
0 0 0 0 0 0 0 1 1 1 1 1 1 1 1 1 1 1 1 0 1 1 1 2 2 2 1 1 1 0 0 0 0 0 0 0 0 1 1 1 1 0 0 0 0 0 0 0 0
0 0 0 0 0 0 1 2 2 1 0 0 0 0 0 0 0 0 0 0 0 1 1 2 2 2 2 1 1 1 0 0 0 0 0 0 0 0 1 1 1 0 0 0 0 0 0 0 0
0 0 0 0 0 0 1 2 2 1 0 0 0 0 0 0 0 0 0 0 0 0 1 2 2 2 2 2 1 1 0 0 0 0 0 0 0 0 0 1 0 0 0 0 0 0 0 0 0
0 0 0 0 0 1 1 2 2 1 0 0 0 0 0 0 0 0 0 0 0 0 0 1 2 3 3 2 1 1 0 0 0 0 0 0 0 0 0 0 0 0 0 0 0 0 0 0 0
0 0 0 0 0 1 1 2 1 1 0 0 0 0 0 0 0 0 0 0 0 0 0 1 2 4 3 2 1 1 0 0 0 0 0 0 0 0 0 0 0 0 0 0 0 0 0 0 0

GEFSSGP_con_maxscp_198.txt.gz
SCP
0 0 0 0 0 0 0 0 0 0 1 1 1 1 1 1 1 1 1 1 2 3 5 6 6 6 5 4 4 4 4 4 4 3 2 2 3 3 2 2 2 2 2 2 3 3 4 4 4
0 0 0 0 0 0 0 0 0 1 1 1 1 1 1 1 1 1 1 1 2 3 5 6 6 6 5 5 4 4 4 4 4 3 2 2 3 3 3 2 2 2 2 2 3 3 4 4 4
0 0 0 0 0 0 0 0 0 1 1 1 1 1 1 1 1 1 1 2 2 3 4 6 6 6 6 5 4 4 4 4 4 3 2 2 3 3 3 3 2 2 2 3 3 3 4 4 5
0 0 0 0 0 1 1 0 0 0 1 1 1 1 1 1 1 1 2 2 2 3 4 5 6 6 6 5 5 5 4 4 4 3 2 2 2 3 4 3 3 2 2 2 2 3 3 4 4
0 0 0 0 1 1 1 0 0 0 1 1 1 1 1 1 1 2 2 3 3 3 4 5 5 5 5 5 5 6 5 4 4 3 3 2 2 3 4 4 3 3 2 2 2 2 3 3 4
0 0 0 1 1 1 1 0 0 1 1 1 1 1 1 1 1 2 3 4 4 4 4 4 4 4 4 5 5 6 5 4 4 4 4 3 3 3 3 3 3 3 3 2 2 3 3 3 3
0 0 1 1 1 1 1 0 0 1 1 1 1 1 1 1 1 2 3 4 5 4 4 4 4 3 3 4 4 4 4 4 4 5 4 4 4 3 3 3 3 3 3 3 3 3 3 3 3
0 0 1 1 1 1 0 0 0 1 1 1 1 1 1 1 1 2 2 3 3 4 4 4 4 3 3 3 3 3 3 4 4 4 4 4 4 3 3 2 2 2 3 3 3 3 2 2 2
0 0 0 0 0 0 0 0 0 0 1 1 1 1 1 2 2 2 2 2 3 3 4 4 4 4 3 3 3 3 3 3 3 3 3 3 3 3 3 3 2 3 3 3 3 3 2 2 2
0 0 0 0 0 0 0 0 0 1 1 1 1 1 2 2 2 2 2 2 3 4 4 3 3 3 3 3 2 3 3 3 3 3 3 3 3 3 3 3 3 3 3 3 3 3 2 2 2
0 0 0 0 0 0 0 0 0 1 1 1 2 2 2 2 2 2 2 3 4 4 3 3 3 3 3 3 3 3 3 4 4 3 3 4 4 4 4 4 4 3 3 3 3 3 2 2 2
0 0 0 0 0 0 0 0 1 1 2 2 3 3 2 2 3 3 3 4 4 3 3 3 3 4 4 4 3 3 3 3 4 4 4 5 5 6 5 5 4 3 3 3 3 3 3 2 2
0 0 0 0 0 0 0 0 1 2 3 3 4 3 3 3 3 4 4 4 4 3 3 3 4 5 6 6 5 4 4 4 4 4 4 5 6 6 6 6 5 4 3 3 3 4 3 3 2
0 0 0 0 0 0 0 1 1 2 2 3 4 4 4 3 3 3 3 4 3 3 3 3 5 6 8 8 6 5 4 4 4 4 4 5 5 6 6 6 6 5 3 3 3 3 3 3 2
0 0 0 0 0 0 0 1 1 2 2 3 4 4 4 3 3 2 2 3 3 4 4 4 4 6 8 8 6 5 5 5 5 5 5 4 4 5 5 6 6 5 4 4 4 3 3 3 3
0 0 0 0 0 0 0 1 1 2 2 3 4 4 3 3 2 2 2 2 3 4 4 5 4 5 6 7 6 5 5 5 5 5 5 4 4 4 4 4 4 4 4 5 4 4 4 4 4
0 0 0 0 0 0 0 1 1 1 2 3 3 3 3 2 2 2 2 2 3 3 4 5 6 6 5 5 6 6 6 6 5 5 4 4 4 4 4 4 4 4 5 5 5 4 4 4 4
0 0 0 0 0 0 0 1 1 1 2 3 3 3 2 2 2 2 2 3 3 3 4 6 8 7 6 5 5 5 5 5 4 4 3 3 3 4 4 4 4 4 5 5 5 5 5 4 4
0 0 0 0 0 0 0 1 1 1 2 2 3 2 2 2 3 3 3 3 3 4 5 8 9 8 6 5 5 4 4 4 4 4 3 2 2 3 3 3 3 4 4 5 5 5 5 5 5
0 0 0 0 0 0 1 1 1 2 2 2 2 2 2 2 3 4 4 4 4 5 7 9 10 8 6 5 5 4 4 4 4 4 3 2 2 2 2 3 3 3 3 4 5 5 5 5 6
0 0 0 0 0 0 1 1 1 2 2 2 2 2 2 3 4 5 5 5 5 6 8 9 9 7 6 6 5 4 4 3 3 3 3 3 3 3 3 2 3 3 3 3 4 4 4 5 5
0 0 0 0 0 0 0 1 1 2 2 2 2 2 2 3 4 5 5 5 5 5 6 7 7 6 6 6 5 4 3 2 2 2 2 2 3 3 3 3 3 3 3 3 3 4 4 4 4
0 0 0 0 0 0 0 1 1 2 2 2 2 2 2 3 4 5 5 5 4 3 3 3 3 4 4 4 4 3 2 2 2 2 2 2 2 3 4 4 4 3 3 3 3 3 3 3 3
0 0 0 0 0 0 0 0 1 1 2 2 2 2 2 2 3 5 5 4 2 2 1 2 2 2 3 3 3 2 2 2 2 1 1 1 2 3 4 5 5 4 3 2 2 2 3 3 3
0 0 0 0 0 0 0 0 1 1 2 2 2 2 1 2 3 4 6 5 3 2 1 1 1 2 2 3 3 2 2 2 2 2 2 1 1 2 3 4 4 3 3 2 2 2 2 2 2
0 0 0 0 0 0 0 1 1 2 2 2 2 1 1 1 2 4 6 5 3 1 1 1 1 1 1 2 2 2 2 2 2 2 2 2 1 2 2 2 2 2 2 1 1 2 2 2 2
0 0 0 0 0 0 0 1 2 2 2 1 1 1 1 1 2 3 5 5 2 1 1 1 1 1 1 1 2 2 2 2 2 3 2 2 1 1 1 1 1 1 1 1 1 1 2 2 2
0 0 0 0 0 0 0 1 3 3 2 1 1 1 1 1 1 3 5 4 2 1 1 1 1 1 1 1 2 2 2 2 3 3 2 2 1 1 1 1 1 1 1 1 1 1 1 1 1
0 0 0 0 0 0 0 1 2 2 2 1 1 1 1 1 1 3 4 3 1 1 1 1 1 1 1 1 2 2 2 2 3 3 2 1 1 1 1 1 1 1 1 1 1 1 1 1 1
0 0 0 0 0 0 0 1 2 3 2 1 0 0 1 1 2 2 3 2 1 1 1 1 1 1 1 2 2 3 3 3 3 2 2 1 1 1 1 1 1 1 1 1 1 1 1 1 1

GEFSSGP_con_maxscp_204.txt.gz
SCP
0 0 0 0 0 0 0 1 1 2 1 1 1 1 1 1 2 2 2 2 4 6 6 5 5 4 4 3 3 2 2 2 2 2 2 1 1 1 1 1 1 1 2 2 2 1 1 2 2
0 0 0 0 0 0 0 1 2 1 1 1 1 1 1 1 2 2 2 2 4 6 6 5 5 4 4 4 3 2 2 2 2 2 2 1 1 1 1 1 1 1 2 2 2 1 1 1 2
0 0 0 0 0 0 1 1 1 1 1 1 1 1 1 2 2 3 3 3 4 6 7 7 6 5 4 4 3 2 2 2 2 2 2 2 2 1 1 1 1 1 2 2 2 1 1 1 1
0 0 0 0 1 1 1 1 1 1 1 1 1 1 1 2 3 4 4 5 6 7 8 7 6 5 4 4 3 3 3 2 2 3 2 2 2 2 1 1 1 1 1 2 2 2 2 2 1
0 0 0 1 2 2 1 1 1 1 1 1 1 1 2 3 4 4 4 5 7 9 9 8 7 6 5 4 4 4 3 3 3 3 3 3 2 2 1 1 1 1 1 1 2 2 2 2 2
0 0 1 1 2 2 1 1 1 1 1 1 1 1 2 2 3 3 3 4 6 9 9 8 6 6 5 4 4 4 4 3 3 3 3 3 3 2 2 1 1 1 1 1 2 2 2 2 1
0 0 0 1 2 2 1 1 1 1 1 1 1 1 2 2 2 2 2 2 4 6 8 8 6 5 5 5 5 4 3 3 4 3 3 3 3 2 2 2 2 1 1 1 2 2 2 2 2
0 0 0 1 1 1 1 1 1 2 2 2 2 2 2 2 2 2 2 3 4 5 7 7 5 4 4 4 4 4 3 4 4 3 3 3 3 2 2 2 2 2 2 2 2 2 2 2 2
1 1 1 1 1 1 1 0 1 1 2 2 3 3 3 3 3 3 3 4 5 5 6 7 5 4 3 3 3 3 3 3 3 3 3 3 3 3 2 2 2 2 2 2 2 2 2 2 2
1 1 1 1 1 1 0 0 1 1 2 2 3 3 3 4 4 3 4 5 5 4 5 5 5 4 3 3 3 3 3 3 3 3 3 3 3 3 3 3 3 3 3 3 3 3 2 2 2
1 1 1 1 1 0 0 0 1 1 2 2 3 3 3 4 4 4 5 5 4 4 4 5 5 4 4 3 4 3 3 3 3 3 4 4 4 4 4 4 3 4 4 4 3 3 3 2 2
1 1 1 0 0 0 0 0 1 1 2 3 3 3 3 4 5 6 6 5 4 4 4 6 6 6 5 6 6 5 4 4 4 4 5 5 4 4 4 4 4 4 4 4 4 4 3 3 2
1 1 0 0 0 0 0 0 1 2 2 3 3 3 3 5 7 7 7 6 5 4 5 6 7 7 7 9 10 9 7 6 5 6 6 6 5 5 5 5 5 5 5 5 5 5 4 4 3
0 0 0 0 0 0 0 0 1 2 2 2 2 2 3 6 7 7 6 6 5 4 5 6 7 7 7 10 12 12 10 8 7 7 7 6 6 6 6 6 6 5 5 5 4 5 5 4 4
0 0 0 0 0 0 0 1 2 2 2 2 2 2 4 7 7 6 6 6 6 5 5 5 5 6 7 9 11 11 10 9 7 7 7 6 6 6 6 5 5 5 5 4 4 4 4 4 4
0 0 0 0 0 0 0 1 2 2 2 2 3 4 6 7 7 6 6 7 7 6 6 5 5 5 6 7 8 8 8 6 6 7 7 7 5 5 5 4 4 4 4 4 3 3 3 3 3
0 0 0 0 0 0 1 1 2 2 2 3 5 6 7 8 7 6 6 8 9 7 6 6 6 6 7 8 8 8 6 4 4 5 6 6 6 5 4 4 3 4 4 4 3 3 3 3 3
0 0 0 0 0 0 1 1 2 3 3 5 7 8 8 8 7 6 6 9 10 9 8 8 8 9 10 10 9 8 7 5 4 5 5 6 5 5 4 3 3 3 3 3 3 3 2 2 2
0 0 0 0 0 1 1 1 3 4 5 7 10 9 8 7 7 7 7 9 10 11 11 11 12 14 14 12 10 8 8 6 5 4 4 4 4 4 3 3 3 3 3 3 3 3 3 3 3
0 0 0 0 0 1 1 1 3 5 6 8 11 9 7 7 7 7 8 8 9 11 13 14 15 17 16 13 10 8 6 4 4 3 3 3 3 3 3 3 3 3 3 3 3 3 3 3 3
0 0 0 0 1 1 1 1 3 4 5 8 11 9 7 7 7 7 7 7 8 10 14 16 17 17 14 11 8 6 4 3 3 3 3 3 3 3 3 3 3 3 3 3 3 3 3 3 3
0 0 0 0 0 1 1 1 2 4 6 9 10 7 5 6 6 7 8 9 9 11 15 17 17 14 11 8 6 4 3 3 3 3 3 3 3 3 3 3 3 2 2 2 3 3 3 3 3
0 0 0 0 0 0 0 1 2 4 7 9 8 5 4 4 5 7 9 10 10 11 13 15 13 10 8 6 4 4 3 3 3 2 2 3 3 3 3 3 3 2 2 2 2 3 3 3 3
0 0 0 0 0 0 1 1 2 5 7 7 6 4 3 4 5 8 9 9 9 8 9 9 8 6 5 4 3 3 2 2 2 2 2 2 3 3 3 3 2 2 2 2 2 3 3 3 2
0 0 0 0 0 0 1 1 2 4 5 5 4 3 3 4 5 6 6 7 7 6 5 4 4 3 3 2 2 2 2 2 2 2 2 2 2 2 2 2 2 2 2 2 2 3 3 3 2
0 0 0 0 0 0 1 1 2 4 4 4 3 3 3 4 4 4 5 6 8 7 5 3 3 2 2 2 2 2 2 2 2 2 1 1 2 2 2 2 2 2 2 2 2 2 3 3 3
0 0 0 0 0 0 1 1 2 4 5 4 3 3 4 4 4 4 4 6 8 8 6 4 3 3 3 2 2 2 2 2 2 2 2 2 2 2 2 2 2 2 2 2 2 2 2 3 3
0 0 0 0 0 0 1 1 2 4 4 4 3 4 4 4 3 3 3 5 8 9 6 4 3 3 3 3 3 3 3 3 3 2 2 2 2 2 2 2 2 2 2 2 2 2 2 2 2
0 0 0 0 1 1 1 1 2 4 4 3 4 5 4 3 4 4 4 5 8 8 5 4 3 3 3 4 4 3 4 4 3 3 3 3 2 2 2 2 2 2 1 2 2 1 2 2 2
0 0 0 0 1 1 1 1 2 4 4 3 4 5 3 3 4 6 6 6 8 7 5 4 4 4 4 4 4 4 4 4 4 3 3 3 3 3 2 2 1 1 1 1 1 1 2 2 2

GEFSSGP_con_maxscp_210.txt.gz
SCP
0 0 0 0 0 0 0 0 0 1 1 0 1 2 3 4 3 2 1 2 3 4 4 4 4 4 4 4 3 3 2 2 2 2 2 2 2 2 2 2 1 1 1 1 1 1 2 2 2
0 0 0 0 0 0 0 0 1 1 0 0 1 2 3 3 3 2 2 2 3 3 3 4 4 5 5 4 3 3 2 2 2 2 2 2 2 3 2 2 1 1 1 1 1 2 2 2 2
0 0 0 0 0 0 0 1 1 1 0 1 1 2 2 2 2 2 2 3 3 3 3 4 5 5 5 5 4 3 2 2 2 2 1 2 2 3 3 2 1 1 1 1 1 2 2 2 2
0 0 0 1 1 1 1 1 1 1 1 1 1 2 2 2 2 2 3 4 3 3 3 4 5 5 6 6 5 4 3 2 2 1 1 1 2 3 3 2 2 1 1 1 1 2 2 2 3
0 0 1 1 2 2 1 1 0 1 1 1 1 2 2 2 3 4 5 4 3 3 3 4 5 5 6 6 6 5 3 2 2 2 2 2 2 3 3 3 2 2 2 2 1 1 2 2 2
0 0 1 2 2 2 1 1 1 1 1 1 1 1 2 3 4 4 5 5 4 3 3 4 4 5 5 5 5 5 4 3 2 2 2 2 2 3 3 3 3 2 2 2 2 1 1 2 2
0 1 1 2 2 2 1 1 1 1 1 1 1 1 2 3 4 4 5 5 4 3 3 3 3 4 4 4 4 4 4 4 3 2 2 2 2 2 3 3 3 2 2 2 2 1 1 1 2
0 1 1 1 1 1 1 1 1 1 1 2 1 1 3 4 5 5 5 5 4 3 2 2 3 3 3 4 4 4 4 4 4 3 2 2 2 2 2 3 3 2 2 2 2 1 1 1 1
0 0 1 1 1 1 0 0 1 2 3 3 3 3 4 5 6 6 6 5 4 3 2 2 3 3 3 3 4 4 4 4 4 4 3 3 3 3 2 2 2 2 2 2 2 2 1 1 1
0 0 1 1 1 0 0 0 1 2 3 4 4 5 5 6 7 7 7 6 5 4 3 2 3 3 3 3 4 5 5 5 5 5 4 4 3 3 3 2 2 2 2 2 2 2 2 1 2
1 0 1 1 0 0 0 0 1 2 3 4 4 5 6 6 7 8 7 6 5 4 3 3 4 4 3 3 4 5 5 6 6 5 5 4 3 3 3 3 2 2 2 2 2 2 2 1 1
1 1 0 0 0 0 0 0 1 2 2 3 4 5 5 6 7 7 7 6 5 4 4 4 4 4 3 3 4 4 5 6 6 5 5 5 4 3 3 3 3 3 3 3 2 2 2 2 2
1 0 0 0 0 0 0 1 1 1 3 4 4 4 5 6 7 9 8 6 4 3 3 3 3 3 2 2 3 3 4 5 5 5 5 4 4 3 3 3 3 3 3 3 2 2 2 2 2
0 0 0 0 0 0 1 1 1 2 4 5 4 4 5 7 9 10 8 6 3 2 2 2 2 2 2 2 2 2 3 3 3 3 4 4 3 3 3 3 3 2 2 2 2 2 1 2 2
0 0 0 0 0 0 1 1 1 3 4 4 4 4 6 9 11 10 7 4 3 2 2 2 2 2 2 2 2 2 2 2 2 2 2 3 2 2 3 3 2 1 2 2 2 1 1 1 1
0 0 0 0 0 0 1 1 2 3 4 3 4 7 10 12 11 8 5 3 3 2 2 2 2 2 2 3 2 2 2 2 2 2 2 2 2 2 3 2 1 1 1 1 1 1 1 1 1
0 0 0 0 0 0 0 1 2 2 3 3 6 10 13 12 9 6 4 3 3 3 2 2 2 3 3 4 4 3 2 3 3 3 3 2 2 2 2 1 1 1 1 1 1 1 1 1 1
0 0 0 0 0 0 0 1 1 2 3 4 8 11 12 10 7 5 4 4 4 3 3 2 2 3 5 6 5 4 3 3 4 4 3 2 1 1 1 1 1 1 1 1 1 1 1 1 1
0 0 0 0 0 0 1 1 1 2 3 6 9 10 9 8 7 6 5 5 5 4 4 3 3 4 6 7 7 5 4 4 4 3 2 1 1 1 1 1 1 1 1 1 1 1 1 1 1
0 0 0 0 0 0 1 1 1 2 4 7 8 7 7 7 7 6 6 6 6 5 5 4 4 5 6 7 7 5 4 4 3 2 2 1 1 1 1 1 1 1 1 1 1 1 1 1 1
0 0 0 0 0 0 1 2 2 2 4 6 5 5 6 6 6 6 6 7 6 6 5 4 5 6 6 6 5 4 3 3 3 2 2 2 1 1 1 1 1 1 1 1 1 1 1 1 0
0 0 0 0 0 0 1 1 2 2 3 3 3 3 4 5 4 5 6 7 7 6 5 5 5 6 6 5 3 3 2 3 3 2 2 2 2 1 1 1 1 1 1 1 1 1 1 1 0
0 0 0 0 0 0 0 0 1 1 2 2 1 2 3 3 3 5 6 7 7 7 6 5 5 6 5 3 2 1 1 1 1 1 1 2 2 2 1 1 1 1 1 0 0 1 1 1 0
0 0 0 0 0 0 0 0 0 1 1 1 1 1 2 2 3 4 6 7 8 8 7 6 4 4 3 2 1 1 1 0 0 0 0 1 1 1 1 1 1 0 0 1 0 0 0 0 0
0 0 0 0 0 0 0 0 0 0 0 1 1 1 1 1 2 4 5 6 7 8 7 5 3 2 1 1 1 0 0 0 0 0 0 0 1 1 1 1 0 0 0 0 0 0 0 0 0
0 0 0 0 0 0 0 0 0 0 1 1 1 1 1 1 2 3 4 6 7 7 5 3 1 1 1 0 0 0 0 0 0 0 0 0 1 1 0 0 0 0 0 0 0 0 0 0 0
0 0 0 0 0 0 0 0 0 1 1 1 1 1 1 1 1 2 4 5 6 5 3 2 1 1 0 0 0 0 0 0 0 0 0 0 0 0 0 0 0 0 1 1 1 0 0 0 0
0 0 0 0 0 0 0 0 0 1 1 1 1 1 1 1 1 2 3 4 4 3 2 1 1 1 1 0 0 0 0 0 0 0 0 0 0 0 0 0 0 1 1 1 1 0 0 0 0
0 0 0 0 0 0 0 0 0 1 1 1 1 1 1 1 1 2 3 3 2 2 1 1 1 1 1 1 1 0 0 0 0 0 0 0 0 0 0 0 0 0 0 0 0 0 0 0 0
0 0 0 0 0 0 0 0 0 1 1 1 1 2 1 1 1 2 2 2 2 2 1 1 1 1 1 1 1 1 0 0 0 0 1 1 0 0 0 0 0 0 0 0 0 0 0 0 0

GEFSSGP_con_maxscp_216.txt.gz
SCP
0 0 0 0 0 0 0 0 0 0 0 0 1 1 2 2 2 2 1 2 2 3 3 5 6 6 5 5 5 5 6 5 5 4 4 3 3 2 2 1 1 1 1 1 1 1 1 1 2
0 0 0 0 0 0 0 0 0 0 0 0 1 1 1 2 2 2 2 2 3 3 3 4 5 5 5 5 5 5 5 5 5 4 4 3 3 2 2 1 1 1 1 1 1 1 1 1 1
0 0 0 0 0 0 0 0 1 0 0 0 1 1 1 2 2 2 2 3 4 4 3 3 4 4 5 5 5 5 5 4 4 4 4 4 3 3 2 2 1 1 1 1 1 1 1 1 1
0 0 0 0 0 0 1 1 1 1 1 0 1 1 1 1 2 2 3 4 5 4 3 3 3 4 4 4 5 5 5 4 3 3 4 3 3 3 3 2 2 2 1 1 1 1 1 1 1
0 0 1 1 1 1 1 1 1 1 1 1 1 1 1 1 2 3 5 6 6 5 3 3 3 4 4 4 4 4 4 4 3 3 3 3 3 3 3 3 2 2 1 1 1 1 1 1 1
0 0 1 1 1 1 1 1 1 1 1 1 1 1 2 2 3 4 6 6 6 4 3 3 3 4 3 3 3 4 4 4 4 3 3 3 3 3 3 3 3 2 1 1 1 1 1 1 1
0 0 1 1 1 1 1 1 1 1 1 1 1 2 2 3 3 5 5 5 4 3 2 2 3 3 3 3 3 4 4 4 4 3 3 3 3 3 3 3 3 3 2 1 1 1 1 1 1
0 0 1 1 1 1 1 1 1 1 1 1 1 1 2 3 4 5 5 4 4 3 2 2 2 2 2 3 3 3 3 3 3 3 3 3 3 3 2 2 3 3 2 2 1 1 1 1 1
0 1 1 1 1 1 0 0 1 1 1 1 1 1 2 4 5 6 6 6 4 4 3 2 2 2 2 3 4 3 3 3 3 3 3 3 3 3 3 2 2 2 2 2 1 2 2 2 2
0 1 1 1 1 0 0 1 1 1 1 1 1 2 3 5 6 7 8 7 5 4 4 4 4 4 3 3 4 4 3 3 3 3 3 3 3 3 3 3 2 2 2 1 1 2 2 2 2
0 1 1 0 0 0 0 0 0 1 1 1 2 3 5 5 6 8 8 7 5 4 4 5 5 4 4 3 3 4 4 3 3 3 3 3 3 3 4 3 3 3 2 2 2 2 2 2 2
0 0 0 0 0 0 0 0 0 1 1 1 2 4 6 6 6 7 7 6 4 3 3 4 4 4 3 2 2 3 3 3 3 3 3 4 4 4 4 4 3 3 3 3 2 2 2 2 2
0 0 0 0 0 0 0 1 1 1 1 1 2 5 6 6 5 5 4 4 3 3 2 2 2 2 2 2 1 2 5 7 5 3 3 4 4 4 4 4 4 3 3 3 3 3 2 2 2
0 0 0 0 0 0 1 1 1 1 1 1 3 5 6 6 4 3 3 4 3 2 1 1 1 1 1 1 1 1 6 11 7 2 3 4 4 4 4 4 4 3 3 3 2 2 2 2 2
0 0 0 0 0 0 0 1 1 1 1 1 3 5 6 6 4 2 2 3 3 2 1 1 1 1 1 1 1 1 4 6 4 2 2 3 3 4 4 4 3 3 3 3 2 2 2 2 1
0 0 0 0 0 0 0 1 1 1 1 2 3 5 6 5 3 2 2 2 2 1 1 1 1 1 0 1 1 1 1 1 1 1 1 2 2 3 3 3 3 3 2 2 2 2 1 1 1
0 0 0 0 0 0 0 1 1 1 2 3 5 5 4 3 2 1 1 1 1 1 1 1 1 1 0 1 1 1 1 1 1 1 1 1 1 2 2 2 2 2 2 2 2 2 1 1 1
0 0 0 0 0 0 0 1 1 2 3 5 5 4 3 2 2 1 1 1 1 1 2 1 1 0 0 1 1 1 2 2 2 2 1 1 1 1 1 1 1 1 1 2 2 2 1 1 1
0 0 0 0 0 0 0 1 1 2 3 5 4 3 2 2 2 2 2 2 2 2 2 1 1 0 0 1 1 2 3 3 3 2 2 2 1 1 1 1 1 1 1 1 1 1 1 1 1
0 0 0 0 0 0 0 1 1 2 3 4 3 2 1 2 2 2 2 2 2 2 2 2 1 0 0 1 2 2 3 3 3 3 2 1 1 1 1 1 1 1 1 1 1 1 1 1 1
0 0 0 0 0 0 0 1 1 1 2 2 2 1 1 1 2 2 2 3 3 3 3 2 1 0 1 1 2 2 3 2 2 2 2 1 1 1 1 1 1 1 1 0 1 1 1 1 1
0 0 0 0 0 0 0 0 1 1 1 1 1 1 0 1 1 2 2 3 3 4 3 2 1 0 1 2 2 2 2 2 2 1 1 0 0 1 1 1 1 1 0 0 0 1 1 1 1
0 0 0 0 0 0 0 0 0 1 1 0 0 0 0 0 1 1 2 3 3 4 4 2 1 0 1 1 2 2 2 2 1 0 0 0 0 0 0 1 1 1 1 0 0 0 1 1 1
0 0 0 0 0 0 0 0 0 0 1 0 0 0 0 0 1 1 2 2 3 4 4 3 1 1 1 1 2 2 2 1 1 0 0 0 0 0 0 0 1 1 1 0 0 0 1 1 1
0 0 0 0 0 0 0 0 0 0 0 1 1 0 0 0 0 1 2 3 3 4 5 3 1 1 1 1 1 1 1 1 0 0 0 0 0 0 0 0 1 1 1 0 0 0 1 1 1
0 0 0 0 0 0 0 0 0 0 1 1 1 1 0 0 1 1 2 3 4 5 5 4 2 1 1 1 1 1 0 0 0 0 0 0 0 0 0 0 0 1 1 0 0 0 0 1 1
0 0 0 0 0 0 0 0 0 0 0 1 1 1 1 1 1 1 1 2 4 5 5 4 2 1 1 1 0 0 0 0 0 0 0 0 0 0 0 0 0 0 0 1 0 0 0 0 0
0 0 0 0 0 0 0 0 0 0 0 0 0 1 1 1 1 1 1 2 3 4 4 3 2 1 1 0 0 0 0 0 0 0 0 0 0 0 0 0 0 0 0 1 1 0 0 0 0
0 0 0 0 0 0 0 0 0 0 0 0 0 0 1 1 1 1 1 1 3 3 3 2 1 1 1 0 0 0 0 0 0 0 0 0 0 0 0 0 0 0 0 0 0 0 0 0 0
0 0 0 0 0 0 0 0 0 0 0 0 0 0 1 1 1 0 0 1 2 2 2 1 1 1 1 1 0 0 0 0 0 0 0 0 0 0 0 0 0 0 0 0 0 0 0 0 0

GEFSSGP_con_maxscp_222.txt.gz
SCP
0 0 0 0 0 0 0 0 0 0 0 0 0 1 1 1 1 1 2 1 1 2 2 2 2 3 3 2 2 3 3 3 3 3 3 3 3 3 3 3 3 3 2 2 2 2 2 2 2
0 0 0 0 0 0 0 0 0 0 0 0 1 1 1 1 1 1 2 1 2 2 2 2 3 3 2 2 3 3 3 3 3 3 3 3 3 3 3 3 3 2 2 2 2 2 2 3 3
0 0 0 0 0 0 0 0 0 0 1 1 1 1 1 1 1 1 2 2 2 2 2 3 3 3 3 3 3 3 3 3 3 3 3 3 3 3 3 3 2 2 2 2 2 2 2 3 3
0 0 0 0 0 0 0 0 1 1 1 1 1 1 1 1 1 1 2 3 3 3 3 3 3 3 3 3 3 3 3 3 3 3 3 3 3 3 3 2 2 2 2 2 2 2 2 3 3
0 0 0 0 0 1 1 1 1 1 1 1 2 2 1 1 1 2 3 4 5 5 4 3 3 3 3 3 3 3 3 3 3 2 2 2 3 3 3 2 2 2 2 2 2 2 2 2 3
0 0 0 0 1 1 1 1 1 1 2 2 2 2 2 2 1 2 3 4 5 5 4 3 3 3 3 2 2 2 3 2 2 2 2 2 3 2 2 2 2 1 2 2 2 2 2 2 2
0 0 0 1 1 1 1 1 1 1 2 2 2 2 2 2 2 2 3 4 5 5 4 3 3 3 2 2 2 2 2 2 2 2 2 2 2 2 2 2 2 1 1 2 2 2 2 2 2
0 0 0 1 1 1 1 1 1 1 1 2 2 3 3 3 2 2 2 4 5 5 3 2 2 2 2 3 3 3 2 2 2 2 2 2 2 2 2 2 2 1 1 1 2 2 2 2 2
1 0 0 0 1 1 1 1 1 1 1 2 3 4 4 3 2 2 3 4 6 5 3 2 2 2 2 3 4 4 3 2 1 1 1 2 2 2 2 2 2 2 1 1 1 2 2 2 2
0 0 0 0 0 0 1 1 1 1 1 2 4 5 4 3 3 3 3 3 4 4 3 2 2 2 2 2 3 3 2 2 1 1 2 2 2 2 2 2 2 2 2 2 2 1 1 2 3
0 1 0 0 0 1 1 1 1 1 1 2 4 4 4 4 4 4 3 3 3 3 2 2 1 1 2 2 2 2 2 2 1 2 2 2 3 3 3 3 2 2 2 2 2 2 2 2 3
0 0 0 0 1 1 1 2 2 2 2 2 3 4 4 4 5 5 4 2 2 2 2 2 2 2 2 2 2 2 2 2 2 2 2 2 3 4 4 3 3 3 3 3 2 2 2 2 3
0 0 0 0 1 1 2 2 3 3 3 3 3 4 4 4 5 5 4 2 2 2 2 2 2 3 3 2 2 2 2 2 2 2 2 2 3 4 4 4 4 4 3 3 3 2 2 3 3
0 0 0 0 1 1 2 3 4 5 4 4 4 4 4 4 4 4 3 3 3 3 3 3 3 3 3 2 2 2 2 2 2 2 2 2 3 4 5 5 4 4 4 4 3 3 3 3 3
0 0 0 0 0 1 2 3 4 5 5 4 4 4 4 4 4 3 3 4 4 4 4 4 4 3 3 2 2 2 2 2 2 2 2 2 2 3 4 5 5 4 5 6 5 4 3 3 2
0 0 0 0 0 1 1 2 4 4 4 4 4 4 4 4 3 3 4 4 4 4 5 4 4 3 3 3 3 2 2 2 2 2 2 2 2 3 4 5 4 4 5 6 6 5 4 3 3
0 0 0 0 0 0 1 2 2 3 3 3 3 3 4 4 4 4 4 4 5 5 5 5 4 4 4 4 3 3 3 3 2 2 2 2 3 3 5 4 4 4 4 5 6 5 4 4 4
0 0 0 0 0 0 1 1 2 2 3 3 2 2 3 4 4 4 5 5 5 5 5 5 5 5 5 5 5 5 4 4 3 2 2 2 2 3 4 4 3 4 4 4 4 4 4 5 5
0 0 0 0 0 1 1 1 2 2 3 3 2 2 2 3 4 5 5 5 5 5 5 5 6 7 7 7 7 7 6 5 4 3 2 2 2 3 4 3 4 4 3 3 3 3 4 5 5
0 0 0 1 1 1 1 1 2 3 3 3 2 1 2 3 4 5 6 6 6 6 6 6 6 7 8 8 8 9 8 6 5 4 3 3 3 4 4 4 4 4 3 3 3 3 4 4 5
0 0 0 0 1 1 1 1 2 3 3 3 2 1 2 3 4 5 7 7 6 6 6 6 6 7 7 7 7 7 7 7 6 5 4 3 4 4 4 4 4 4 3 3 3 3 3 4 4
0 0 0 0 0 1 1 1 1 2 3 3 2 2 2 3 5 7 8 7 6 6 6 7 7 7 7 6 5 5 6 7 7 6 5 4 4 4 4 3 3 3 3 2 3 3 3 3 3
0 0 0 0 0 0 0 0 1 2 2 2 2 2 2 3 5 7 8 7 7 7 7 8 8 7 6 6 6 5 5 5 6 6 5 4 4 3 3 3 3 3 2 2 2 3 3 4 3
0 0 0 0 0 0 0 0 1 1 1 2 2 2 2 3 5 7 7 7 7 7 8 9 8 6 5 5 5 4 4 4 5 5 5 5 4 3 2 2 2 2 2 2 2 3 3 4 4
0 0 0 0 0 0 0 1 1 1 1 1 2 2 2 3 4 5 5 5 6 7 8 9 8 5 3 3 3 3 3 3 4 4 5 5 4 3 3 2 2 2 2 2 2 2 3 3 4
0 0 0 0 0 0 0 1 1 1 1 1 2 2 2 3 3 4 4 4 5 6 7 7 7 5 3 3 3 3 3 3 3 4 4 4 4 4 3 2 2 2 2 2 2 2 2 2 3
0 0 0 0 0 0 0 1 1 1 1 2 2 2 3 3 3 3 4 4 4 5 6 6 6 5 4 4 4 4 3 3 3 3 3 3 3 3 3 3 3 3 3 2 2 1 2 2 2
0 0 0 0 0 0 0 1 1 1 1 1 2 2 3 3 3 4 4 4 4 4 5 6 6 6 6 5 5 5 4 3 3 3 3 2 2 3 3 4 4 4 4 3 2 2 1 2 2
0 0 0 0 0 0 0 1 1 1 1 1 2 2 2 2 3 4 4 4 4 4 5 6 6 7 7 6 6 5 4 3 3 3 3 3 3 4 5 6 6 5 4 4 3 2 1 1 1
0 0 0 0 0 0 0 1 1 1 1 2 2 2 2 2 3 3 4 4 5 5 6 6 6 7 7 7 6 5 4 3 3 3 3 4 5 5 6 7 6 5 4 3 3 2 1 1 1

GEFSSGP_con_maxscp_228.txt.gz
SCP
0 0 0 1 1 1 0 0 0 0 0 0 0 0 1 1 1 1 2 2 3 3 3 3 4 3 3 2 2 1 2 2 2 2 2 2 1 2 2 2 1 2 2 1 1 1 1 1 1
0 0 0 1 1 1 0 0 0 0 0 0 0 0 1 1 1 1 2 3 3 4 3 4 4 3 3 2 2 1 1 2 2 2 2 2 1 1 1 1 2 2 2 1 1 1 1 1 1
0 0 0 0 0 0 0 0 0 0 0 1 1 1 1 2 2 2 2 3 4 4 4 5 4 3 3 2 2 2 1 1 1 2 2 2 2 1 1 1 2 2 1 1 1 1 1 1 1
0 0 0 0 0 0 1 1 0 0 1 1 1 1 2 3 3 2 2 2 4 5 5 5 4 3 3 2 2 2 2 2 1 1 2 2 2 2 2 2 2 2 1 1 1 1 1 1 1
0 0 0 0 0 1 1 1 1 1 1 1 2 2 4 4 4 2 2 2 3 4 4 4 3 3 3 3 2 3 2 2 2 1 1 2 2 2 2 2 2 1 1 1 1 1 1 1 1
0 0 0 0 1 1 1 1 1 1 1 1 2 4 4 4 4 3 2 2 3 4 4 3 3 3 3 3 3 3 3 2 2 2 1 2 2 3 2 2 2 1 1 1 1 1 1 1 1
0 0 0 1 1 1 1 1 1 1 2 2 2 3 4 4 4 4 2 3 4 4 4 3 3 3 3 3 3 3 3 2 2 2 2 2 2 2 2 2 2 1 1 1 1 1 1 1 1
0 0 0 1 1 1 1 1 1 1 2 3 3 3 3 3 4 4 3 3 4 4 3 3 3 3 3 3 3 4 3 3 2 2 2 2 1 2 2 2 2 2 1 1 1 1 1 1 1
0 0 0 0 1 1 1 1 1 1 2 4 4 4 3 3 3 3 3 4 4 4 3 3 3 3 3 3 3 3 3 3 2 2 2 2 2 1 2 2 2 2 1 1 1 1 2 2 2
0 0 0 0 0 1 1 1 1 1 3 4 5 4 4 4 3 3 3 3 4 3 3 2 2 2 2 2 3 3 3 2 2 2 2 2 2 2 2 2 2 2 2 2 2 2 2 2 2
0 0 0 0 0 1 1 1 1 1 2 4 4 4 4 4 3 3 3 3 3 3 3 2 2 2 2 2 2 2 2 2 2 2 2 2 2 2 2 2 2 2 2 2 3 3 2 2 2
0 1 1 1 1 1 1 1 1 1 2 3 3 4 4 4 4 3 3 3 3 3 3 3 3 3 3 4 4 3 2 2 2 2 3 3 2 2 3 3 3 3 3 3 3 3 3 2 2
0 1 1 1 1 0 1 1 1 1 2 3 3 3 3 3 4 4 3 3 3 4 4 4 4 5 6 7 7 5 3 3 3 3 3 3 3 3 4 4 4 3 3 3 3 3 3 3 2
0 0 0 0 0 0 0 1 1 1 3 3 3 3 3 3 4 4 4 4 4 5 5 5 6 8 11 13 12 8 6 5 4 5 5 4 3 4 5 5 4 4 3 3 3 3 3 3 3
0 0 0 0 0 0 0 1 1 2 3 3 3 3 3 4 5 5 4 5 6 6 7 6 7 10 14 15 14 11 8 6 6 6 6 5 4 5 6 5 5 4 3 3 4 4 4 3 3
0 0 0 0 0 0 0 1 2 3 3 3 3 3 4 6 7 6 5 5 6 8 9 8 7 9 13 14 13 11 9 7 7 7 8 6 5 5 6 6 5 4 4 4 4 4 4 4 3
0 0 0 0 0 0 0 1 2 3 3 4 4 5 6 8 7 6 6 6 8 10 12 11 9 9 11 12 12 10 9 8 8 8 9 9 7 6 6 5 5 5 5 5 5 4 4 3 3
0 0 0 0 0 0 1 2 3 4 5 5 5 6 7 8 7 6 7 8 9 11 12 12 11 11 11 11 11 10 10 9 9 9 10 12 11 8 6 5 5 6 6 6 6 6 4 3 2
0 0 0 0 0 1 2 3 3 4 7 7 6 6 7 7 6 6 7 9 9 10 11 12 12 11 12 12 12 11 10 10 10 9 10 13 13 11 8 6 5 6 7 8 8 7 5 3 2
0 0 0 0 0 2 4 5 3 4 7 9 8 6 6 6 6 6 8 8 8 8 10 11 11 10 11 12 12 11 10 10 10 9 10 12 14 13 11 7 5 5 7 8 10 8 5 3 2
0 0 0 0 1 2 5 5 3 3 6 9 8 6 5 6 7 7 8 8 8 7 9 10 10 10 10 10 11 10 9 8 8 8 9 10 12 13 13 10 7 6 6 7 9 8 5 3 3
0 0 0 1 1 2 3 3 2 2 5 8 7 5 5 6 7 7 8 8 8 7 8 9 10 10 10 10 9 9 8 7 7 7 8 8 9 11 12 11 9 7 6 6 7 7 5 4 3
0 0 0 1 1 1 1 2 2 3 5 7 6 3 4 6 7 7 7 8 8 8 8 9 11 12 11 11 10 9 8 7 7 7 7 7 8 9 10 10 10 8 6 6 6 6 5 4 4
0 0 0 1 1 1 1 1 2 3 4 5 4 3 3 5 7 6 6 7 9 10 10 10 11 13 14 13 12 10 9 8 7 7 7 8 9 9 9 9 9 8 7 6 6 5 5 4 4
0 0 0 0 1 1 1 2 2 3 3 3 3 2 3 4 6 6 6 8 10 12 12 11 12 14 15 15 13 12 11 10 8 8 9 11 13 13 12 11 10 9 8 7 6 5 4 4 5
0 0 0 0 0 1 1 2 2 2 2 2 3 3 3 4 5 6 7 8 10 13 14 14 13 15 16 15 14 13 13 12 11 11 11 14 16 17 17 15 12 10 7 6 5 5 5 5 5
0 0 0 0 0 0 1 2 2 2 2 3 4 4 4 5 5 6 7 9 11 13 15 16 15 15 15 15 13 13 13 14 14 14 14 15 17 19 18 16 12 9 7 6 5 5 5 5 5
0 0 0 0 0 0 1 1 2 2 3 5 5 4 5 5 6 6 7 9 12 14 16 17 17 16 15 14 12 11 12 13 14 15 17 17 18 18 17 15 11 8 7 6 6 5 5 5 5
0 0 0 1 1 1 1 1 2 3 4 4 3 3 4 4 5 5 6 9 12 15 16 18 19 17 15 12 11 10 11 11 13 15 17 17 16 16 16 14 11 8 7 7 6 5 4 4 4
0 0 0 1 1 1 1 1 3 4 5 4 2 2 2 3 3 4 5 8 12 15 17 18 19 18 15 11 10 10 10 11 12 14 15 15 14 14 14 13 11 8 8 8 6 4 4 4 4

GEFSSGP_con_maxscp_234.txt.gz
SCP
0 0 0 0 0 0 0 0 0 0 0 1 1 1 2 2 1 1 2 2 3 2 3 3 3 3 3 3 3 3 3 2 2 2 2 3 3 3 2 2 2 2 2 2 2 2 2 1 1
0 0 0 0 0 0 0 0 0 1 1 1 1 1 2 2 2 2 2 3 3 3 3 3 3 4 4 3 3 3 2 2 2 2 2 3 3 3 2 2 2 2 2 2 2 2 1 1 1
0 0 0 0 0 0 0 1 1 1 1 1 1 2 2 3 3 3 3 3 3 3 3 3 4 4 4 3 3 3 2 2 2 2 2 2 3 3 3 2 2 2 2 1 1 1 1 1 1
0 0 0 0 0 0 0 1 2 2 1 1 2 3 4 4 4 4 4 4 3 3 3 3 4 4 4 3 3 2 2 2 2 2 2 2 2 3 3 2 2 2 2 1 1 1 1 1 1
0 0 0 0 0 1 1 2 2 2 2 2 3 5 5 5 5 5 4 3 2 2 3 3 3 4 4 4 3 2 2 2 2 2 2 1 1 2 3 3 2 2 2 1 1 1 1 1 1
0 0 0 0 1 1 1 2 2 3 3 3 3 5 5 5 5 4 3 2 2 2 2 3 3 3 3 3 3 2 2 2 2 2 1 1 1 2 2 3 2 2 1 1 1 1 1 1 1
0 0 0 0 1 1 1 2 2 2 3 3 3 3 4 4 3 3 2 2 2 2 2 2 2 2 3 3 2 2 2 2 2 2 2 2 1 1 2 3 2 2 1 1 1 1 1 1 1
0 0 0 0 1 1 1 1 1 2 2 3 3 3 3 2 3 3 2 2 2 2 1 1 1 2 2 2 2 2 2 2 2 2 2 2 1 1 2 2 2 2 2 1 1 1 1 1 1
0 0 0 0 0 1 1 1 1 2 3 3 3 2 2 2 3 3 2 2 1 1 1 1 1 1 2 2 2 2 2 2 2 2 2 2 1 1 1 2 2 2 2 2 1 2 2 1 1
0 0 0 0 0 0 1 1 1 2 3 2 2 2 2 3 3 3 3 2 2 1 1 1 1 1 2 2 2 2 2 2 2 2 2 2 1 1 1 2 2 2 2 2 2 2 2 2 1
0 0 0 0 0 1 1 1 2 2 2 1 1 1 2 3 3 3 3 3 2 1 1 1 1 1 2 2 2 2 2 2 2 2 2 2 2 1 1 1 2 2 2 2 2 2 2 2 1
0 0 0 0 0 1 2 2 2 1 1 1 1 2 2 2 3 3 3 3 2 1 1 1 1 2 2 2 2 2 2 2 2 2 2 2 2 2 1 1 1 2 2 2 3 2 2 2 1
0 0 0 0 0 1 2 2 2 2 2 2 2 1 1 2 2 2 3 3 2 2 1 1 2 2 2 1 1 1 1 1 1 1 1 1 1 2 2 2 1 1 2 2 3 2 2 2 1
0 0 0 0 0 1 2 2 2 3 3 2 2 1 1 1 2 3 3 3 3 2 1 2 2 2 2 2 1 1 1 1 1 1 1 1 1 1 1 1 1 1 1 2 2 2 2 2 1
0 0 0 0 0 1 2 2 3 3 2 2 2 2 2 2 2 3 4 4 3 3 2 2 2 2 2 2 2 2 2 2 2 1 1 1 1 1 1 1 1 1 1 2 2 2 2 2 2
0 0 0 0 0 1 2 2 2 3 2 2 2 2 2 3 4 5 5 5 4 4 3 3 2 2 3 3 4 4 3 3 2 2 1 2 2 1 1 1 1 1 1 1 1 1 2 2 2
0 0 0 0 0 1 2 2 2 3 3 3 3 4 4 4 6 7 6 5 5 4 3 3 3 3 4 5 5 5 5 4 3 2 2 2 2 2 2 2 2 1 1 1 1 1 1 1 2
0 0 0 0 1 1 1 2 2 3 3 4 5 6 5 5 7 8 7 5 5 4 4 4 4 5 5 6 6 5 5 5 4 3 3 3 2 2 2 2 2 2 2 1 1 1 1 1 1
0 0 0 1 1 1 1 1 2 2 3 5 7 8 7 7 8 7 6 5 4 5 6 6 7 7 7 7 6 6 6 5 5 4 4 4 4 3 3 3 2 2 2 2 1 1 1 1 1
0 0 0 1 1 1 1 1 2 2 3 5 7 9 10 9 8 7 5 4 4 5 6 7 7 7 7 7 7 6 5 5 4 4 4 5 5 5 4 3 3 3 3 2 2 2 1 1 1
0 0 0 1 1 1 1 1 2 2 3 4 7 10 12 11 8 7 5 4 4 5 5 6 6 6 6 6 6 6 5 4 4 4 4 5 5 5 5 4 3 3 3 3 2 2 2 2 1
0 0 0 0 1 1 1 1 1 2 2 3 6 10 12 10 7 6 5 4 4 4 5 5 5 5 5 5 5 5 5 4 4 3 3 3 4 5 5 4 4 3 3 3 3 3 3 2 2
0 0 0 0 0 0 0 1 1 1 2 3 6 8 9 7 5 5 4 4 4 4 4 5 4 4 4 4 5 5 4 4 3 3 2 2 3 3 4 4 4 4 3 3 3 3 3 3 3
0 0 0 0 0 0 0 0 0 1 2 4 6 6 5 4 4 4 4 4 4 4 4 4 4 4 4 4 4 4 4 4 3 3 3 3 2 3 3 4 4 4 4 3 3 3 3 3 3
0 0 0 0 0 0 0 0 1 1 2 3 4 4 3 3 4 4 5 5 4 4 4 4 4 4 4 4 4 4 4 4 4 4 4 4 4 4 4 4 4 5 4 4 3 3 3 3 3
0 0 0 0 0 0 0 1 1 1 2 3 3 3 3 3 4 6 5 5 5 5 5 5 4 4 4 4 4 4 5 5 5 6 6 6 6 6 5 5 5 5 4 4 4 3 3 3 2
0 0 0 0 0 0 1 1 1 2 3 4 5 5 4 4 5 6 6 5 4 5 5 6 6 6 5 5 5 5 6 6 7 7 7 7 7 6 5 5 4 5 5 5 4 3 3 2 2
0 0 0 0 0 0 0 1 1 3 5 6 6 5 4 4 5 6 6 5 5 4 5 6 7 8 8 7 7 6 6 7 7 7 7 6 5 4 3 3 3 3 4 4 4 2 1 1 1
0 0 0 0 0 0 0 1 2 4 6 7 6 4 4 4 4 4 5 5 5 4 3 4 6 8 8 8 7 7 6 5 5 5 4 3 2 2 1 1 1 1 2 2 2 2 1 1 1
0 0 0 0 0 0 0 1 2 4 6 6 5 4 4 4 4 4 5 6 5 4 2 3 5 7 8 9 8 7 5 4 3 3 2 2 1 1 0 0 0 0 0 1 1 1 1 1 0

GEFSSGP_con_maxscp_240.txt.gz
SCP
1 0 0 0 0 0 0 0 0 1 1 1 2 2 2 1 1 1 1 1 2 2 3 3 3 3 3 3 3 3 3 3 3 3 3 3 4 4 4 4 4 4 4 4 4 4 4 4 4
0 0 0 0 0 0 0 0 0 1 1 1 1 1 1 1 1 1 1 2 2 2 3 3 3 3 3 3 3 3 2 2 2 3 3 3 3 4 4 4 4 4 4 4 4 4 4 4 4
0 0 0 0 0 0 0 0 1 1 1 1 1 1 1 1 2 2 2 2 2 2 2 3 3 3 3 3 3 2 2 2 2 2 2 3 3 3 4 4 4 4 4 4 4 4 4 4 4
0 0 0 0 0 0 0 0 1 1 1 1 1 1 1 1 2 2 2 2 2 2 2 2 3 3 3 2 2 2 2 2 2 2 2 3 3 3 4 4 4 4 4 4 4 4 4 4 4
0 0 0 0 0 0 0 1 1 1 1 1 1 1 1 1 2 2 2 2 2 2 2 2 2 2 2 2 2 2 2 2 2 3 3 3 3 3 4 4 4 4 4 4 4 4 4 4 4
0 0 0 0 0 1 1 1 1 1 1 1 1 1 1 1 2 2 2 2 2 2 2 2 2 2 2 2 2 2 2 2 3 3 3 3 3 3 4 4 4 4 4 4 4 4 4 4 4
0 0 0 0 1 1 1 1 1 1 1 1 1 1 1 2 2 2 1 2 2 2 1 1 1 2 2 3 3 3 2 2 3 3 3 3 3 3 4 4 4 4 4 4 4 5 4 4 4
0 0 0 0 0 1 1 1 1 1 1 1 1 1 2 2 2 2 1 1 1 1 1 1 1 1 1 2 3 3 3 2 3 3 3 3 3 3 3 4 4 4 4 4 4 5 5 4 4
0 0 0 0 0 0 1 1 1 1 1 1 1 1 2 2 2 2 1 1 1 1 1 1 1 1 1 2 2 2 2 2 2 2 2 3 3 3 3 3 4 4 4 4 5 5 5 5 4
0 0 0 0 0 1 1 1 1 1 1 1 1 2 2 2 2 2 1 1 1 1 1 1 1 1 1 1 2 2 2 2 2 2 2 2 3 3 3 3 3 4 4 5 5 5 5 5 4
0 0 0 0 0 1 1 1 1 1 1 1 1 2 3 2 2 2 1 1 1 1 1 1 1 1 1 1 1 1 1 1 1 1 1 2 2 2 3 3 3 4 4 4 5 5 5 4 4
0 0 0 0 1 1 1 1 1 1 1 1 2 2 3 2 2 2 2 1 1 1 1 1 1 1 1 1 1 1 1 1 1 1 1 1 1 2 2 3 3 4 4 4 4 4 4 4 3
0 0 0 0 0 1 1 1 1 1 1 1 2 2 2 2 2 2 2 2 1 1 1 1 1 1 1 1 1 1 1 1 1 1 1 1 1 1 1 2 3 4 4 4 4 3 3 3 3
0 0 0 0 0 0 1 1 1 1 1 1 2 2 2 2 2 2 2 2 2 1 1 1 1 1 1 1 1 1 1 1 1 1 1 1 1 1 1 2 3 3 3 3 3 3 3 2 2
0 0 0 0 0 0 1 1 1 1 1 1 1 1 2 2 2 2 2 3 2 2 2 1 1 1 1 1 1 1 1 1 1 1 1 1 1 1 1 2 2 2 3 3 3 3 3 2 2
0 0 0 0 0 1 1 1 1 1 1 1 1 1 1 2 2 2 2 3 3 2 2 1 1 1 1 1 1 1 1 1 1 1 2 2 2 2 2 2 2 2 3 3 2 3 3 3 2
0 0 0 0 0 1 1 1 1 1 1 1 1 1 1 2 2 3 3 3 3 3 2 1 1 1 1 1 1 1 1 2 2 2 2 2 2 3 3 3 2 3 3 2 2 2 2 3 2
0 0 0 0 0 1 1 1 1 1 1 1 1 1 2 3 3 3 3 3 4 4 3 2 1 1 1 1 1 2 2 3 3 3 3 3 3 3 4 4 3 3 3 3 3 2 2 2 2
0 0 0 0 0 1 1 1 1 1 1 1 1 2 2 3 3 3 3 3 4 5 4 3 2 1 1 2 2 3 4 4 4 3 3 3 3 3 3 3 3 3 3 3 3 3 2 2 2
0 0 0 0 1 1 1 1 1 1 1 1 1 1 2 3 3 3 4 4 4 5 5 4 3 2 2 2 3 4 4 4 3 2 2 2 2 2 1 1 2 2 2 2 2 2 2 2 1
0 0 0 0 1 1 1 1 1 1 1 1 1 1 2 2 3 4 4 5 5 5 5 4 3 2 2 2 2 3 3 2 2 1 1 1 1 1 1 1 1 1 2 2 2 2 2 2 2
0 0 0 0 0 1 0 0 1 1 1 1 1 1 1 2 3 4 5 5 5 5 4 3 2 2 2 2 2 2 2 1 1 1 1 1 1 1 1 1 1 2 2 2 2 2 3 3 2
0 0 0 0 0 0 0 0 0 1 1 1 1 1 1 2 3 4 5 6 5 3 2 2 2 2 2 2 2 2 2 2 2 2 1 1 1 1 2 2 2 2 2 3 3 3 3 3 3
0 0 0 0 0 0 0 0 0 1 1 1 1 1 1 2 3 4 6 6 5 2 2 2 2 2 2 3 3 3 2 2 2 2 2 1 1 1 2 2 2 2 3 3 3 3 4 4 4
0 0 0 0 0 0 0 0 0 0 1 1 1 1 2 2 2 3 6 7 4 3 3 3 3 3 3 3 3 3 3 3 2 2 2 1 1 1 1 1 2 2 3 3 3 3 4 4 4
0 0 0 0 0 0 0 0 0 0 1 1 1 2 2 3 2 4 6 7 4 4 4 4 4 3 3 3 3 3 3 3 2 2 1 1 1 1 1 1 2 2 2 3 3 3 3 3 3
0 0 0 0 0 0 0 0 0 0 0 1 1 2 3 4 4 4 6 6 5 5 5 5 5 4 4 2 2 3 3 3 3 2 2 1 1 1 1 1 1 2 2 2 2 2 2 2 2
0 0 0 0 0 0 0 0 0 0 0 1 2 3 4 5 5 5 5 5 5 5 5 5 5 5 4 2 1 2 2 2 3 3 2 1 1 1 0 1 1 1 1 1 1 1 2 2 2
0 0 0 0 0 0 0 0 0 0 1 2 3 5 5 5 6 5 5 4 4 4 4 3 4 4 3 2 1 1 1 2 2 2 2 1 1 0 0 0 0 0 0 0 0 1 1 1 1
0 0 0 0 0 0 0 0 0 0 1 3 4 5 5 5 5 5 4 3 3 3 2 2 1 1 1 1 1 1 1 1 2 2 2 1 1 0 0 0 0 0 0 0 0 0 0 0 0

GEFSSGP_con_maxscp_246.txt.gz
SCP
0 0 0 0 0 0 0 0 0 0 0 0 1 1 2 2 1 1 1 1 1 2 3 3 3 2 2 1 1 1 1 1 1 1 1 1 1 1 1 1 1 1 1 1 1 1 1 1 1
0 0 0 0 0 0 0 0 0 0 0 1 1 1 2 1 1 1 1 1 1 2 2 3 3 2 2 2 2 2 2 1 1 1 1 1 1 1 1 1 1 1 1 1 1 1 1 1 1
0 0 0 0 0 0 0 0 0 0 0 1 1 1 1 1 1 1 1 1 1 1 2 3 3 2 2 2 2 2 2 2 2 2 2 2 1 1 1 1 1 2 1 1 1 1 1 1 1
0 0 0 0 0 0 0 0 0 0 0 1 1 1 1 1 1 1 1 1 1 1 2 2 2 2 2 2 2 2 2 2 2 2 2 2 1 1 1 1 2 2 2 1 1 1 1 2 2
0 0 0 0 0 0 0 0 0 1 1 1 1 1 1 1 2 2 1 1 1 1 2 2 2 2 2 2 2 2 2 2 2 2 2 2 1 1 1 1 1 2 2 2 1 1 2 2 2
0 0 0 0 0 0 0 0 0 1 1 1 1 1 1 2 2 2 1 1 1 1 2 2 2 2 2 1 1 2 2 2 2 2 2 2 1 1 1 1 2 2 2 2 2 2 2 2 2
0 0 0 0 0 0 1 0 0 1 1 1 1 1 1 2 2 2 2 1 1 2 2 2 2 2 2 1 1 1 2 2 2 2 2 2 1 1 1 2 2 2 2 2 2 2 2 2 2
0 0 0 0 0 0 1 1 1 1 1 1 1 1 1 2 2 2 2 2 2 2 2 1 1 2 2 1 1 1 2 2 1 1 1 1 1 1 1 2 2 2 2 2 2 2 2 2 2
0 0 0 0 0 0 0 1 1 1 1 1 1 1 1 2 2 2 2 2 2 2 2 1 1 1 2 1 1 1 1 1 1 1 1 1 1 1 1 1 2 2 2 2 2 2 2 2 1
0 0 0 0 0 0 0 0 1 1 1 1 1 1 1 2 2 3 3 3 2 2 2 2 2 2 2 2 1 1 1 1 1 1 1 1 1 1 1 1 1 2 2 2 2 3 2 2 1
0 0 0 0 0 0 0 0 0 1 1 1 1 1 1 2 2 2 3 3 3 3 2 2 2 2 2 2 2 1 1 1 1 1 1 1 2 2 2 2 2 2 2 2 3 3 3 2 2
0 0 0 0 0 0 0 0 0 1 1 1 1 2 2 2 2 3 4 4 3 2 2 2 2 2 2 2 1 1 1 1 1 1 1 1 1 1 1 2 2 2 2 3 3 4 3 3 2
1 0 0 0 0 0 0 0 0 1 1 1 1 2 2 2 3 4 5 4 3 2 2 2 2 2 2 2 1 1 1 1 1 1 1 1 1 1 1 1 2 2 2 3 4 4 4 3 2
1 0 0 0 0 0 0 0 1 1 1 1 1 2 2 3 4 5 4 3 2 2 2 3 3 3 3 2 1 1 1 1 1 1 1 1 1 1 1 1 1 2 2 3 3 4 4 3 3
0 0 0 0 0 0 0 1 1 1 1 1 2 2 3 4 4 4 3 3 2 3 3 4 4 4 4 3 2 2 1 1 1 1 1 1 1 2 2 2 2 2 2 2 3 3 3 3 3
0 0 0 0 0 0 0 1 1 1 1 2 2 2 3 3 3 2 2 2 3 3 3 4 4 5 5 5 3 2 2 1 1 2 2 2 2 2 2 2 2 2 2 2 2 2 3 3 3
0 0 0 0 0 0 0 1 1 1 1 2 2 2 2 2 2 2 2 2 3 3 4 4 5 5 6 6 5 3 2 2 2 2 3 3 3 3 3 3 3 3 3 2 2 2 3 3 4
0 0 0 0 0 0 0 1 1 1 1 1 2 2 2 2 2 2 2 3 3 4 4 5 6 6 7 7 6 5 3 3 3 4 5 5 4 4 3 4 4 4 3 3 3 3 4 4 5
0 0 0 0 0 0 0 1 1 1 1 2 2 2 2 2 2 2 2 3 4 4 5 6 6 7 8 8 8 6 5 5 5 6 7 5 4 3 3 4 4 4 4 4 4 4 4 5 5
0 0 0 0 0 0 0 1 1 1 1 2 2 2 2 2 2 2 3 3 4 5 5 6 7 8 9 10 9 8 7 6 6 5 4 3 3 3 3 3 3 4 4 3 3 3 4 4 4
0 0 0 0 0 0 0 1 1 2 1 1 2 2 2 2 2 3 3 3 4 4 4 5 6 8 10 10 10 8 7 5 4 3 3 2 2 2 2 2 2 3 3 3 3 3 3 3 3
0 0 0 0 0 0 0 1 1 2 1 1 1 2 2 2 3 3 3 3 4 4 3 4 6 8 10 10 10 8 6 4 3 3 3 3 2 2 2 2 2 2 2 3 3 3 3 3 3
0 0 0 0 0 0 0 0 1 2 2 1 1 2 3 4 4 3 3 3 4 4 4 4 5 7 9 10 9 8 6 4 3 4 4 4 4 3 3 3 3 3 3 3 3 3 3 4 4
0 0 0 0 0 0 0 1 1 2 2 2 2 4 5 6 5 5 4 4 5 4 4 4 4 7 8 9 8 7 6 5 4 5 7 7 7 5 4 3 3 3 3 3 3 4 4 4 5
0 0 0 0 0 0 1 1 1 1 1 2 4 5 7 8 7 7 6 6 5 4 4 4 5 6 7 7 7 6 6 5 6 8 10 10 9 7 5 4 4 4 4 4 4 4 4 4 4
0 0 0 0 0 0 1 1 1 1 1 3 4 6 7 7 7 7 6 6 6 5 5 5 6 7 7 7 6 7 7 8 9 11 12 11 8 7 5 4 4 4 3 3 3 3 3 3 3
0 0 0 0 0 0 1 1 1 1 1 2 4 4 5 5 5 5 5 6 8 8 8 7 8 8 8 8 9 10 10 10 10 10 9 7 5 4 3 3 3 3 2 2 2 1 1 1 2
0 0 0 0 0 0 0 1 1 1 1 2 3 3 3 4 4 4 6 9 11 12 11 11 11 11 11 11 11 11 10 9 7 6 5 4 3 2 2 2 2 2 2 2 2 1 1 1 1
0 0 0 0 0 0 0 1 1 1 1 2 2 2 3 3 4 6 9 11 12 11 11 12 13 13 12 11 9 7 6 5 4 3 3 3 2 2 1 1 1 2 2 2 2 1 1 1 1
0 0 0 0 0 0 0 0 1 1 2 2 2 2 3 3 4 6 8 9 9 8 9 10 12 12 10 7 5 4 3 2 3 3 3 3 2 2 2 2 1 1 1 2 2 1 1 1 1